| time (UTC) | temp F | wind direction | speed knots | gust knots | rain 1hr in | rain 24hr in | rain mn in | humidity % | barometer mb |
| 20260906065322 | 82 | 315 | 4.3 | 9.6 | 0.00 | 0.00 | 0.00 | 56 | 1015.7 |
| 20260906065155 | 82 | 5 | 5.2 | 10.4 | 0.00 | 0.00 | 0.00 | 57 | 1015.8 |
| 20260906065037 | 82 | 355 | 5.2 | 10.4 | 0.00 | 0.00 | 0.00 | 57 | 1015.7 |
| 20260906065000 | 81 | 350 | 5.2 | 10.4 | 0.00 | 0.00 | 0.00 | 57 | 1015.7 |
| 20260906064912 | 81 | 277 | 5.2 | 10.4 | 0.00 | 0.00 | 0.00 | 57 | 1015.7 |
| 20260906064744 | 81 | 336 | 6.1 | 10.4 | 0.00 | 0.00 | 0.00 | 57 | 1015.8 |
| 20260906064408 | 81 | 343 | 6.1 | 10.4 | 0.00 | 0.00 | 0.00 | 58 | 1015.7 |
| 20260906064112 | 81 | 343 | 5.2 | 10.4 | 0.00 | 0.00 | 0.00 | 58 | 1015.6 |
| 20260906063930 | 80 | 313 | 5.2 | 10.4 | 0.00 | 0.00 | 0.00 | 58 | 1015.7 |
| 20260906063539 | 80 | 295 | 5.2 | 10.4 | 0.00 | 0.00 | 0.00 | 59 | 1015.7 |
| 20260906063407 | 80 | 315 | 5.2 | 10.4 | 0.00 | 0.00 | 0.00 | 59 | 1015.7 |
| 20260906063039 | 80 | 319 | 5.2 | 10.4 | 0.00 | 0.00 | 0.00 | 60 | 1015.8 |
| 20260906062843 | 79 | 307 | 5.2 | 10.4 | 0.00 | 0.00 | 0.00 | 60 | 1015.7 |
| 20260906062643 | 79 | 322 | 4.3 | 10.4 | 0.00 | 0.00 | 0.00 | 60 | 1015.8 |
| 20260906062558 | 78 | 302 | 4.3 | 10.4 | 0.00 | 0.00 | 0.00 | 61 | 1015.7 |
| 20260906062455 | 78 | 334 | 4.3 | 10.4 | 0.00 | 0.00 | 0.00 | 61 | 1015.7 |
| 20260906062236 | 78 | 329 | 4.3 | 9.6 | 0.00 | 0.00 | 0.00 | 62 | 1015.7 |
| 20260906062217 | 75 | 290 | 3.5 | 7.8 | 0.00 | 0.00 | 0.00 | 67 | 1015.6 |
| 20260906062101 | 78 | 346 | 3.5 | 8.7 | 0.00 | 0.00 | 0.00 | 62 | 1015.6 |
| 20260906062052 | 78 | 19 | 3.5 | 8.7 | 0.00 | 0.00 | 0.00 | 62 | 1015.6 |
| 20260906061839 | 77 | 295 | 3.5 | 7.8 | 0.00 | 0.00 | 0.00 | 63 | 1015.7 |
| 20260906061712 | 77 | 280 | 3.5 | 7.8 | 0.00 | 0.00 | 0.00 | 64 | 1015.6 |
| 20260906061630 | 76 | 293 | 3.5 | 7.8 | 0.00 | 0.00 | 0.00 | 64 | 1015.6 |
| 20260906061511 | 76 | 301 | 3.5 | 7.0 | 0.00 | 0.00 | 0.00 | 64 | 1015.5 |
| 20260906061352 | 76 | 315 | 3.5 | 7.8 | 0.00 | 0.00 | 0.00 | 66 | 1015.5 |
| 20260906061230 | 76 | 294 | 2.6 | 7.8 | 0.00 | 0.00 | 0.00 | 66 | 1015.6 |
| 20260906061217 | 75 | 291 | 2.6 | 7.8 | 0.00 | 0.00 | 0.00 | 66 | 1015.6 |
| 20260906061039 | 75 | 275 | 2.6 | 7.8 | 0.00 | 0.00 | 0.00 | 67 | 1015.6 |
| 20260906060835 | 75 | 315 | 3.5 | 7.8 | 0.00 | 0.00 | 0.00 | 67 | 1015.6 |
| 20260906060429 | 74 | 275 | 3.5 | 7.8 | 0.00 | 0.00 | 0.00 | 67 | 1015.6 |
| 20260906060225 | 74 | 302 | 3.5 | 7.8 | 0.00 | 0.00 | 0.00 | 68 | 1015.5 |
| 20260906060036 | 74 | 298 | 4.3 | 7.8 | 0.00 | 0.00 | 0.00 | 68 | 1015.5 |
| 20260906060022 | 74 | 306 | 4.3 | 7.8 | 0.00 | 0.00 | 0.00 | 68 | 1015.5 |
| 20260906055818 | 73 | 305 | 4.3 | 7.8 | 0.00 | 0.00 | 0.00 | 68 | 1015.5 |
| 20260906055634 | 73 | 313 | 4.3 | 7.8 | 0.00 | 0.00 | 0.00 | 69 | 1015.6 |
| 20260906055547 | 72 | 267 | 4.3 | 7.8 | 0.00 | 0.00 | 0.00 | 69 | 1015.5 |
| 20260906055417 | 72 | 272 | 4.3 | 7.0 | 0.00 | 0.00 | 0.00 | 69 | 1015.5 |
| 20260906055228 | 72 | 271 | 3.5 | 7.0 | 0.00 | 0.00 | 0.00 | 70 | 1015.7 |
| 20260906055117 | 71 | 283 | 2.6 | 7.0 | 0.00 | 0.00 | 0.00 | 70 | 1015.6 |
| 20260906055054 | 71 | 276 | 2.6 | 6.1 | 0.00 | 0.00 | 0.00 | 70 | 1015.7 |
| 20260906054921 | 71 | 269 | 1.7 | 6.1 | 0.00 | 0.00 | 0.00 | 71 | 1015.7 |
| 20260906054758 | 71 | 294 | 0.9 | 6.1 | 0.00 | 0.00 | 0.00 | 71 | 1015.7 |
| 20260906054728 | 71 | 275 | 0.9 | 6.1 | 0.00 | 0.00 | 0.00 | 71 | 1015.7 |
| 20260906054628 | 71 | 269 | 0.9 | 2.6 | 0.00 | 0.00 | 0.00 | 71 | 1015.8 |
| 20260906054252 | 70 | 298 | 0.9 | 3.5 | 0.00 | 0.00 | 0.00 | 71 | 1015.8 |
| 20260906054037 | 70 | 298 | 0.9 | 3.5 | 0.00 | 0.00 | 0.00 | 71 | 1015.8 |
| 20260906054018 | 70 | 298 | 0.9 | 3.5 | 0.00 | 0.00 | 0.00 | 71 | 1015.8 |
| 20260906053807 | 70 | 298 | 1.7 | 3.5 | 0.00 | 0.00 | 0.00 | 71 | 1015.8 |
| 20260906053620 | 70 | 295 | 1.7 | 4.3 | 0.00 | 0.00 | 0.00 | 71 | 1015.7 |
| 20260906053539 | 70 | 308 | 1.7 | 4.3 | 0.00 | 0.00 | 0.00 | 71 | 1015.7 |
| 20260906053359 | 70 | 284 | 2.6 | 4.3 | 0.00 | 0.00 | 0.00 | 71 | 1015.7 |
| 20260906053151 | 70 | 287 | 2.6 | 4.3 | 0.00 | 0.00 | 0.00 | 71 | 1015.7 |
| 20260906053033 | 70 | 300 | 2.6 | 4.3 | 0.00 | 0.00 | 0.00 | 71 | 1015.7 |
| 20260906052952 | 70 | 327 | 2.6 | 5.2 | 0.00 | 0.00 | 0.00 | 71 | 1015.7 |
| 20260906052750 | 69 | 316 | 3.5 | 5.2 | 0.00 | 0.00 | 0.00 | 71 | 1015.7 |
| 20260906052601 | 69 | 302 | 3.5 | 5.2 | 0.00 | 0.00 | 0.00 | 71 | 1015.6 |
| 20260906052533 | 69 | 268 | 3.5 | 7.0 | 0.00 | 0.00 | 0.00 | 71 | 1015.7 |
| 20260906052353 | 69 | 325 | 3.5 | 7.0 | 0.00 | 0.00 | 0.00 | 71 | 1015.6 |
| 20260906052147 | 69 | 311 | 3.5 | 7.0 | 0.00 | 0.00 | 0.00 | 71 | 1015.7 |
| 20260906052028 | 69 | 330 | 3.5 | 7.0 | 0.00 | 0.00 | 0.00 | 71 | 1015.7 |
| 20260906051950 | 69 | 340 | 3.5 | 7.0 | 0.00 | 0.00 | 0.00 | 71 | 1015.6 |
| 20260906051750 | 69 | 309 | 3.5 | 7.0 | 0.00 | 0.00 | 0.00 | 71 | 1015.5 |
| 20260906051625 | 69 | 313 | 3.5 | 7.0 | 0.00 | 0.00 | 0.00 | 71 | 1015.5 |
| 20260906051601 | 69 | 343 | 3.5 | 6.1 | 0.00 | 0.00 | 0.00 | 71 | 1015.5 |
| 20260906051357 | 69 | 312 | 3.5 | 6.1 | 0.00 | 0.00 | 0.00 | 71 | 1015.5 |
| 20260906051142 | 69 | 318 | 3.5 | 6.1 | 0.00 | 0.00 | 0.00 | 71 | 1015.5 |
| 20260906051036 | 69 | 307 | 3.5 | 6.1 | 0.00 | 0.00 | 0.00 | 71 | 1015.5 |
| 20260906050959 | 69 | 326 | 2.6 | 6.1 | 0.00 | 0.00 | 0.00 | 71 | 1015.5 |
| 20260906050808 | 69 | 311 | 3.5 | 6.1 | 0.00 | 0.00 | 0.00 | 71 | 1015.5 |
| 20260906050559 | 69 | 319 | 3.5 | 7.0 | 0.00 | 0.00 | 0.00 | 71 | 1015.4 |
| 20260906050537 | 69 | 299 | 3.5 | 7.0 | 0.00 | 0.00 | 0.00 | 71 | 1015.4 |
| 20260906050401 | 69 | 318 | 3.5 | 7.0 | 0.00 | 0.00 | 0.00 | 71 | 1015.4 |
| 20260906050131 | 69 | 289 | 3.5 | 7.0 | 0.00 | 0.00 | 0.00 | 71 | 1015.5 |
| 20260906050022 | 69 | 287 | 2.6 | 7.0 | 0.00 | 0.00 | 0.00 | 71 | 1015.5 |
| 20260906050001 | 69 | 292 | 2.6 | 6.1 | 0.00 | 0.00 | 0.00 | 72 | 1015.2 |
| 20260906045929 | 69 | 291 | 2.6 | 7.0 | 0.00 | 0.00 | 0.00 | 71 | 1015.5 |
| 20260906045836 | 68 | 288 | 2.6 | 5.2 | 0.00 | 0.00 | 0.00 | 73 | 1014.9 |
| 20260906045823 | 69 | 286 | 0.9 | 4.3 | 0.00 | 0.00 | 0.00 | 73 | 1014.8 |
| 20260906045740 | 69 | 322 | 2.6 | 7.0 | 0.00 | 0.00 | 0.00 | 71 | 1015.5 |
| 20260906045551 | 69 | 319 | 2.6 | 7.0 | 0.00 | 0.00 | 0.00 | 71 | 1015.4 |
| 20260906045423 | 69 | 299 | 1.7 | 5.2 | 0.00 | 0.00 | 0.00 | 72 | 1015.4 |
| 20260906045306 | 69 | 288 | 1.7 | 5.2 | 0.00 | 0.00 | 0.00 | 72 | 1015.3 |
| 20260906045227 | 69 | 292 | 1.7 | 5.2 | 0.00 | 0.00 | 0.00 | 72 | 1015.3 |
| 20260906045136 | 69 | 321 | 1.7 | 4.3 | 0.00 | 0.00 | 0.00 | 72 | 1015.3 |
| 20260906045010 | 69 | 283 | 1.7 | 6.1 | 0.00 | 0.00 | 0.00 | 72 | 1015.2 |
| 20260906044625 | 68 | 292 | 2.6 | 6.1 | 0.00 | 0.00 | 0.00 | 72 | 1015.2 |
| 20260906044500 | 68 | 294 | 2.6 | 7.0 | 0.00 | 0.00 | 0.00 | 72 | 1015.3 |
| 20260906044115 | 68 | 300 | 2.6 | 7.0 | 0.00 | 0.00 | 0.00 | 72 | 1015.2 |
| 20260906044031 | 68 | 301 | 2.6 | 7.0 | 0.00 | 0.00 | 0.00 | 72 | 1015.2 |
| 20260906043911 | 68 | 296 | 2.6 | 7.0 | 0.00 | 0.00 | 0.00 | 72 | 1015.2 |
| 20260906043757 | 69 | 304 | 0.0 | 0.9 | 0.00 | 0.00 | 0.00 | 73 | 1014.5 |
| 20260906043714 | 68 | 325 | 3.5 | 7.0 | 0.00 | 0.00 | 0.00 | 72 | 1015.2 |
| 20260906043516 | 68 | 326 | 3.5 | 7.0 | 0.00 | 0.00 | 0.00 | 72 | 1015.1 |
| 20260906043504 | 68 | 305 | 3.5 | 7.0 | 0.00 | 0.00 | 0.00 | 72 | 1015.1 |
| 20260906043437 | 69 | 303 | 0.0 | 0.0 | 0.00 | 0.00 | 0.00 | 73 | 1014.4 |
| 20260906043310 | 68 | 307 | 4.3 | 7.0 | 0.00 | 0.00 | 0.00 | 72 | 1015.0 |
| 20260906043142 | 68 | 303 | 4.3 | 7.0 | 0.00 | 0.00 | 0.00 | 72 | 1015.0 |
| 20260906043058 | 68 | 334 | 4.3 | 7.0 | 0.00 | 0.00 | 0.00 | 72 | 1015.0 |
| 20260906043004 | 68 | 305 | 4.3 | 7.0 | 0.00 | 0.00 | 0.00 | 72 | 1015.0 |
| 20260906042833 | 68 | 279 | 3.5 | 7.0 | 0.00 | 0.00 | 0.00 | 72 | 1015.0 |
| 20260906042652 | 68 | 271 | 3.5 | 7.0 | 0.00 | 0.00 | 0.00 | 72 | 1015.0 |
| 20260906042642 | 68 | 275 | 3.5 | 7.0 | 0.00 | 0.00 | 0.00 | 72 | 1015.0 |
| 20260906042515 | 68 | 300 | 2.6 | 6.1 | 0.00 | 0.00 | 0.00 | 73 | 1015.0 |
| 20260906042336 | 68 | 313 | 2.6 | 6.1 | 0.00 | 0.00 | 0.00 | 73 | 1014.9 |
| 20260906042256 | 68 | 279 | 2.6 | 6.1 | 0.00 | 0.00 | 0.00 | 73 | 1014.9 |
| 20260906042206 | 68 | 279 | 2.6 | 6.1 | 0.00 | 0.00 | 0.00 | 73 | 1014.9 |
| 20260906042054 | 68 | 286 | 2.6 | 5.2 | 0.00 | 0.00 | 0.00 | 73 | 1014.9 |
| 20260906041711 | 68 | 280 | 2.6 | 5.2 | 0.00 | 0.00 | 0.00 | 73 | 1014.9 |
| 20260906041507 | 68 | 298 | 1.7 | 4.3 | 0.00 | 0.00 | 0.00 | 73 | 1014.9 |
| 20260906041356 | 69 | 315 | 0.9 | 4.3 | 0.00 | 0.00 | 0.00 | 73 | 1014.6 |
| 20260906041023 | 69 | 306 | 0.9 | 4.3 | 0.00 | 0.00 | 0.00 | 73 | 1014.8 |
| 20260906040903 | 69 | 283 | 0.0 | 3.5 | 0.00 | 0.00 | 0.00 | 73 | 1014.5 |
| 20260906040527 | 69 | 303 | 0.0 | 0.0 | 0.00 | 0.00 | 0.00 | 73 | 1014.5 |
| 20260906040359 | 69 | 303 | 0.0 | 0.0 | 0.00 | 0.00 | 0.00 | 73 | 1014.4 |
| 20260906040252 | 69 | 303 | 0.0 | 0.0 | 0.00 | 0.00 | 0.00 | 73 | 1014.4 |
| 20260906035848 | 68 | 304 | 0.0 | 0.0 | 0.00 | 0.00 | 0.00 | 73 | 1014.4 |
| 20260906035646 | 68 | 304 | 0.0 | 0.0 | 0.00 | 0.00 | 0.00 | 73 | 1014.5 |
| 20260906035500 | 68 | 304 | 0.0 | 0.0 | 0.00 | 0.00 | 0.00 | 73 | 1014.4 |
| 20260906035447 | 68 | 303 | 0.0 | 0.0 | 0.00 | 0.00 | 0.00 | 73 | 1014.4 |
| 20260906035240 | 68 | 303 | 0.0 | 0.0 | 0.00 | 0.00 | 0.00 | 73 | 1014.4 |
| 20260906035233 | 68 | 306 | 2.6 | 5.2 | 0.00 | 0.00 | 0.00 | 73 | 1014.4 |
| 20260906035214 | 68 | 321 | 3.5 | 6.1 | 0.00 | 0.00 | 0.00 | 72 | 1014.4 |
| 20260906035159 | 68 | 320 | 2.6 | 5.2 | 0.00 | 0.00 | 0.00 | 72 | 1014.3 |
| 20260906035052 | 68 | 304 | 0.0 | 0.0 | 0.00 | 0.00 | 0.00 | 73 | 1014.4 |
| 20260906035004 | 68 | 303 | 0.0 | 0.0 | 0.00 | 0.00 | 0.00 | 73 | 1014.4 |
| 20260906034917 | 68 | 303 | 0.0 | 0.0 | 0.00 | 0.00 | 0.00 | 73 | 1014.5 |
| 20260906034742 | 68 | 327 | 0.0 | 0.0 | 0.00 | 0.00 | 0.00 | 73 | 1014.5 |
| 20260906034635 | 68 | 299 | 0.0 | 1.7 | 0.00 | 0.00 | 0.00 | 73 | 1014.5 |
| 20260906034616 | 68 | 314 | 0.0 | 2.6 | 0.00 | 0.00 | 0.00 | 73 | 1014.5 |
| 20260906034450 | 68 | 334 | 0.9 | 3.5 | 0.00 | 0.00 | 0.00 | 73 | 1014.4 |
| 20260906034341 | 68 | 25 | 0.9 | 4.3 | 0.00 | 0.00 | 0.00 | 73 | 1014.4 |
| 20260906034141 | 68 | 20 | 1.7 | 4.3 | 0.00 | 0.00 | 0.00 | 73 | 1014.4 |
| 20260906034050 | 68 | 315 | 1.7 | 4.3 | 0.00 | 0.00 | 0.00 | 73 | 1014.4 |
| 20260906033928 | 68 | 321 | 2.6 | 5.2 | 0.00 | 0.00 | 0.00 | 73 | 1014.4 |
| 20260906033545 | 68 | 321 | 3.5 | 5.2 | 0.00 | 0.00 | 0.00 | 73 | 1014.4 |
| 20260906033418 | 68 | 330 | 3.5 | 7.0 | 0.00 | 0.00 | 0.00 | 73 | 1014.4 |
| 20260906033250 | 68 | 323 | 3.5 | 7.0 | 0.00 | 0.00 | 0.00 | 73 | 1014.4 |
| 20260906033229 | 68 | 322 | 3.5 | 7.0 | 0.00 | 0.00 | 0.00 | 73 | 1014.4 |
| 20260906033128 | 68 | 340 | 3.5 | 7.0 | 0.00 | 0.00 | 0.00 | 73 | 1014.4 |
| 20260906032944 | 68 | 314 | 3.5 | 7.0 | 0.00 | 0.00 | 0.00 | 72 | 1014.4 |
| 20260906032810 | 68 | 336 | 3.5 | 7.0 | 0.00 | 0.00 | 0.00 | 72 | 1014.4 |
| 20260906032737 | 68 | 310 | 3.5 | 7.0 | 0.00 | 0.00 | 0.00 | 73 | 1014.4 |
| 20260906032502 | 68 | 307 | 3.5 | 6.1 | 0.00 | 0.00 | 0.00 | 73 | 1014.4 |
| 20260906032326 | 68 | 330 | 3.5 | 6.1 | 0.00 | 0.00 | 0.00 | 72 | 1014.3 |
| 20260906031929 | 68 | 333 | 3.5 | 5.2 | 0.00 | 0.00 | 0.00 | 72 | 1014.2 |
| 20260906031757 | 68 | 298 | 2.6 | 5.2 | 0.00 | 0.00 | 0.00 | 72 | 1014.3 |
| 20260906031408 | 68 | 314 | 2.6 | 6.1 | 0.00 | 0.00 | 0.00 | 72 | 1014.3 |
| 20260906031208 | 68 | 346 | 2.6 | 6.1 | 0.00 | 0.00 | 0.00 | 72 | 1014.2 |
| 20260906031129 | 69 | 314 | 2.6 | 7.0 | 0.00 | 0.00 | 0.00 | 72 | 1013.9 |
| 20260906031113 | 69 | 317 | 3.5 | 7.8 | 0.00 | 0.00 | 0.00 | 72 | 1014.0 |
| 20260906031013 | 68 | 344 | 2.6 | 6.1 | 0.00 | 0.00 | 0.00 | 72 | 1014.2 |
| 20260906030953 | 68 | 326 | 2.6 | 6.1 | 0.00 | 0.00 | 0.00 | 72 | 1014.2 |
| 20260906030842 | 68 | 318 | 2.6 | 6.1 | 0.00 | 0.00 | 0.00 | 72 | 1014.2 |
| 20260906030716 | 68 | 334 | 2.6 | 6.1 | 0.00 | 0.00 | 0.00 | 72 | 1014.2 |
| 20260906030602 | 68 | 307 | 2.6 | 6.1 | 0.00 | 0.00 | 0.00 | 72 | 1014.2 |
| 20260906030528 | 68 | 316 | 2.6 | 4.3 | 0.00 | 0.00 | 0.00 | 72 | 1014.2 |
| 20260906030350 | 68 | 313 | 2.6 | 5.2 | 0.00 | 0.00 | 0.00 | 72 | 1014.1 |
| 20260906030226 | 68 | 306 | 2.6 | 5.2 | 0.00 | 0.00 | 0.00 | 72 | 1014.2 |
| 20260906030206 | 68 | 327 | 2.6 | 5.2 | 0.00 | 0.00 | 0.00 | 72 | 1014.2 |
| 20260906030048 | 68 | 314 | 2.6 | 5.2 | 0.00 | 0.00 | 0.00 | 72 | 1014.2 |
| 20260906025920 | 68 | 326 | 2.6 | 6.1 | 0.00 | 0.00 | 0.00 | 72 | 1014.1 |
| 20260906025810 | 68 | 325 | 2.6 | 6.1 | 0.00 | 0.00 | 0.00 | 72 | 1014.1 |
| 20260906025736 | 68 | 327 | 2.6 | 6.1 | 0.00 | 0.00 | 0.00 | 72 | 1014.1 |
| 20260906025612 | 68 | 344 | 2.6 | 6.1 | 0.00 | 0.00 | 0.00 | 72 | 1014.1 |
| 20260906025445 | 68 | 319 | 2.6 | 6.1 | 0.00 | 0.00 | 0.00 | 72 | 1013.9 |
| 20260906025434 | 68 | 300 | 2.6 | 6.1 | 0.00 | 0.00 | 0.00 | 72 | 1013.9 |
| 20260906025309 | 68 | 311 | 2.6 | 6.1 | 0.00 | 0.00 | 0.00 | 72 | 1014.0 |
| 20260906025058 | 68 | 312 | 2.6 | 6.1 | 0.00 | 0.00 | 0.00 | 72 | 1013.9 |
| 20260906024650 | 69 | 324 | 3.5 | 7.0 | 0.00 | 0.00 | 0.00 | 72 | 1013.9 |
| 20260906024453 | 69 | 313 | 3.5 | 7.0 | 0.00 | 0.00 | 0.00 | 72 | 1014.0 |
| 20260906024139 | 69 | 302 | 3.5 | 7.0 | 0.00 | 0.00 | 0.00 | 72 | 1013.9 |
| 20260906024130 | 69 | 331 | 3.5 | 7.0 | 0.00 | 0.00 | 0.00 | 72 | 1013.9 |
| 20260906024001 | 69 | 317 | 3.5 | 7.8 | 0.00 | 0.00 | 0.00 | 72 | 1013.9 |
| 20260906023818 | 69 | 309 | 3.5 | 7.8 | 0.00 | 0.00 | 0.00 | 72 | 1014.0 |
| 20260906023347 | 69 | 307 | 3.5 | 7.8 | 0.00 | 0.00 | 0.00 | 72 | 1014.0 |
| 20260906023142 | 69 | 303 | 3.5 | 7.8 | 0.00 | 0.00 | 0.00 | 72 | 1014.0 |
| 20260906022943 | 69 | 338 | 3.5 | 7.8 | 0.00 | 0.00 | 0.00 | 72 | 1014.0 |
| 20260906022744 | 69 | 307 | 3.5 | 7.0 | 0.00 | 0.00 | 0.00 | 72 | 1014.1 |
| 20260906022535 | 69 | 309 | 3.5 | 7.0 | 0.00 | 0.00 | 0.00 | 72 | 1014.1 |
| 20260906022434 | 69 | 298 | 3.5 | 7.0 | 0.00 | 0.00 | 0.00 | 73 | 1014.0 |
| 20260906022339 | 69 | 277 | 3.5 | 7.0 | 0.00 | 0.00 | 0.00 | 73 | 1014.1 |
| 20260906022131 | 69 | 318 | 3.5 | 5.2 | 0.00 | 0.00 | 0.00 | 73 | 1014.1 |
| 20260906021935 | 69 | 286 | 3.5 | 6.1 | 0.00 | 0.00 | 0.00 | 73 | 1014.0 |
| 20260906021922 | 69 | 314 | 3.5 | 6.1 | 0.00 | 0.00 | 0.00 | 73 | 1014.0 |
| 20260906021731 | 69 | 292 | 3.5 | 6.1 | 0.00 | 0.00 | 0.00 | 73 | 1014.0 |
| 20260906021528 | 69 | 318 | 3.5 | 6.1 | 0.00 | 0.00 | 0.00 | 73 | 1013.9 |
| 20260906021439 | 69 | 333 | 3.5 | 6.1 | 0.00 | 0.00 | 0.00 | 73 | 1014.0 |
| 20260906021323 | 69 | 334 | 3.5 | 6.1 | 0.00 | 0.00 | 0.00 | 73 | 1014.0 |
| 20260906021317 | 69 | 315 | 3.5 | 7.0 | 0.00 | 0.00 | 0.00 | 74 | 1014.1 |
| 20260906021143 | 69 | 331 | 3.5 | 7.0 | 0.00 | 0.00 | 0.00 | 73 | 1014.1 |
| 20260906020953 | 69 | 314 | 3.5 | 7.0 | 0.00 | 0.00 | 0.00 | 73 | 1014.1 |
| 20260906020944 | 69 | 309 | 3.5 | 7.0 | 0.00 | 0.00 | 0.00 | 73 | 1014.1 |
| 20260906020803 | 69 | 329 | 3.5 | 7.0 | 0.00 | 0.00 | 0.00 | 73 | 1014.0 |
| 20260906020622 | 69 | 319 | 4.3 | 7.0 | 0.00 | 0.00 | 0.00 | 73 | 1014.1 |
| 20260906020533 | 69 | 330 | 3.5 | 7.0 | 0.00 | 0.00 | 0.00 | 73 | 1014.1 |
| 20260906020446 | 69 | 327 | 3.5 | 7.0 | 0.00 | 0.00 | 0.00 | 73 | 1014.1 |
| 20260906020259 | 69 | 317 | 3.5 | 7.0 | 0.00 | 0.00 | 0.00 | 73 | 1014.1 |
| 20260906020129 | 69 | 306 | 3.5 | 7.0 | 0.00 | 0.00 | 0.00 | 73 | 1014.1 |
| 20260906020121 | 69 | 339 | 3.5 | 7.0 | 0.00 | 0.00 | 0.00 | 73 | 1014.1 |
| 20260906015950 | 69 | 324 | 3.5 | 7.0 | 0.00 | 0.00 | 0.00 | 73 | 1014.1 |
| 20260906015813 | 69 | 339 | 3.5 | 7.0 | 0.00 | 0.00 | 0.00 | 74 | 1014.2 |
| 20260906015431 | 69 | 329 | 3.5 | 7.0 | 0.00 | 0.00 | 0.00 | 74 | 1014.1 |
| 20260906015306 | 69 | 300 | 2.6 | 6.1 | 0.00 | 0.00 | 0.00 | 74 | 1014.2 |
| 20260906015152 | 69 | 324 | 2.6 | 6.1 | 0.00 | 0.00 | 0.00 | 74 | 1014.2 |
| 20260906015140 | 69 | 301 | 2.6 | 6.1 | 0.00 | 0.00 | 0.00 | 74 | 1014.2 |
| 20260906015017 | 69 | 326 | 2.6 | 5.2 | 0.00 | 0.00 | 0.00 | 74 | 1014.2 |
| 20260906014852 | 69 | 311 | 2.6 | 5.2 | 0.00 | 0.00 | 0.00 | 73 | 1014.2 |
| 20260906014813 | 69 | 305 | 2.6 | 5.2 | 0.00 | 0.00 | 0.00 | 73 | 1014.2 |
| 20260906014721 | 69 | 321 | 2.6 | 5.2 | 0.00 | 0.00 | 0.00 | 73 | 1014.2 |
| 20260906014106 | 69 | 333 | 2.6 | 6.1 | 0.00 | 0.00 | 0.00 | 73 | 1014.2 |
| 20260906013923 | 69 | 297 | 2.6 | 6.1 | 0.00 | 0.00 | 0.00 | 73 | 1014.2 |
| 20260906013909 | 69 | 323 | 2.6 | 6.1 | 0.00 | 0.00 | 0.00 | 73 | 1014.2 |
| 20260906013708 | 69 | 322 | 2.6 | 6.1 | 0.00 | 0.00 | 0.00 | 73 | 1014.3 |
| 20260906013506 | 69 | 318 | 2.6 | 6.1 | 0.00 | 0.00 | 0.00 | 73 | 1014.3 |
| 20260906013415 | 69 | 302 | 2.6 | 6.1 | 0.00 | 0.00 | 0.00 | 73 | 1014.3 |
| 20260906013308 | 69 | 304 | 3.5 | 6.1 | 0.00 | 0.00 | 0.00 | 73 | 1014.2 |
| 20260906013109 | 69 | 309 | 3.5 | 5.2 | 0.00 | 0.00 | 0.00 | 73 | 1014.3 |
| 20260906012905 | 69 | 321 | 2.6 | 5.2 | 0.00 | 0.00 | 0.00 | 73 | 1014.3 |
| 20260906012703 | 69 | 302 | 2.6 | 5.2 | 0.00 | 0.00 | 0.00 | 73 | 1014.2 |
| 20260906012509 | 69 | 325 | 2.6 | 5.2 | 0.00 | 0.00 | 0.00 | 73 | 1014.2 |
| 20260906012417 | 69 | 324 | 2.6 | 5.2 | 0.00 | 0.00 | 0.00 | 73 | 1014.2 |
| 20260906012306 | 69 | 318 | 2.6 | 5.2 | 0.00 | 0.00 | 0.00 | 73 | 1014.2 |
| 20260906012104 | 69 | 312 | 2.6 | 4.3 | 0.00 | 0.00 | 0.00 | 73 | 1014.1 |
| 20260906011922 | 69 | 290 | 2.6 | 4.3 | 0.00 | 0.00 | 0.00 | 73 | 1014.2 |
| 20260906011907 | 69 | 310 | 2.6 | 4.3 | 0.00 | 0.00 | 0.00 | 73 | 1014.2 |
| 20260906011705 | 69 | 315 | 2.6 | 4.3 | 0.00 | 0.00 | 0.00 | 73 | 1014.3 |
| 20260906011513 | 69 | 332 | 2.6 | 4.3 | 0.00 | 0.00 | 0.00 | 73 | 1014.2 |
| 20260906011443 | 69 | 302 | 3.5 | 5.2 | 0.00 | 0.00 | 0.00 | 73 | 1014.1 |
| 20260906011418 | 69 | 298 | 2.6 | 4.3 | 0.00 | 0.00 | 0.00 | 73 | 1014.2 |
| 20260906011323 | 69 | 315 | 2.6 | 4.3 | 0.00 | 0.00 | 0.00 | 73 | 1014.2 |
| 20260906011158 | 69 | 303 | 2.6 | 4.3 | 0.00 | 0.00 | 0.00 | 73 | 1014.3 |
| 20260906011041 | 69 | 316 | 2.6 | 4.3 | 0.00 | 0.00 | 0.00 | 73 | 1014.2 |
| 20260906011024 | 69 | 318 | 2.6 | 4.3 | 0.00 | 0.00 | 0.00 | 73 | 1014.2 |
| 20260906010853 | 69 | 314 | 3.5 | 4.3 | 0.00 | 0.00 | 0.00 | 73 | 1014.2 |
| 20260906010652 | 69 | 340 | 3.5 | 5.2 | 0.00 | 0.00 | 0.00 | 73 | 1014.1 |
| 20260906010243 | 69 | 323 | 2.6 | 5.2 | 0.00 | 0.00 | 0.00 | 73 | 1014.2 |
| 20260906010041 | 69 | 321 | 3.5 | 5.2 | 0.00 | 0.00 | 0.00 | 73 | 1014.2 |
| 20260906005905 | 69 | 317 | 3.5 | 5.2 | 0.00 | 0.00 | 0.00 | 73 | 1014.2 |
| 20260906005842 | 69 | 317 | 3.5 | 5.2 | 0.00 | 0.00 | 0.00 | 73 | 1014.2 |
| 20260906005642 | 69 | 305 | 2.6 | 5.2 | 0.00 | 0.00 | 0.00 | 73 | 1014.1 |
| 20260906005445 | 70 | 332 | 2.6 | 4.3 | 0.00 | 0.00 | 0.00 | 73 | 1014.1 |
| 20260906005410 | 70 | 313 | 2.6 | 5.2 | 0.00 | 0.00 | 0.00 | 73 | 1014.0 |
| 20260906005239 | 70 | 301 | 2.6 | 5.2 | 0.00 | 0.00 | 0.00 | 72 | 1014.1 |
| 20260906005204 | 72 | 300 | 1.7 | 3.5 | 0.00 | 0.00 | 0.00 | 70 | 1014.0 |
| 20260906005137 | 72 | 326 | 3.5 | 5.2 | 0.00 | 0.00 | 0.00 | 70 | 1014.0 |
| 20260906005039 | 70 | 299 | 2.6 | 5.2 | 0.00 | 0.00 | 0.00 | 72 | 1014.0 |
| 20260906004950 | 70 | 305 | 2.6 | 4.3 | 0.00 | 0.00 | 0.00 | 71 | 1014.0 |
| 20260906004918 | 70 | 315 | 2.6 | 5.2 | 0.00 | 0.00 | 0.00 | 72 | 1014.0 |
| 20260906004851 | 70 | 320 | 2.6 | 5.2 | 0.00 | 0.00 | 0.00 | 72 | 1014.0 |
| 20260906004734 | 70 | 301 | 2.6 | 5.2 | 0.00 | 0.00 | 0.00 | 72 | 1014.0 |
| 20260906004603 | 70 | 312 | 2.6 | 5.2 | 0.00 | 0.00 | 0.00 | 72 | 1014.0 |
| 20260906004538 | 70 | 292 | 2.6 | 4.3 | 0.00 | 0.00 | 0.00 | 72 | 1014.0 |
| 20260906004441 | 70 | 270 | 2.6 | 3.5 | 0.00 | 0.00 | 0.00 | 71 | 1014.0 |
| 20260906004050 | 70 | 314 | 2.6 | 4.3 | 0.00 | 0.00 | 0.00 | 71 | 1014.0 |
| 20260906003950 | 70 | 313 | 2.6 | 4.3 | 0.00 | 0.00 | 0.00 | 71 | 1014.0 |
| 20260906003925 | 70 | 320 | 2.6 | 4.3 | 0.00 | 0.00 | 0.00 | 71 | 1014.0 |
| 20260906003804 | 70 | 304 | 2.6 | 4.3 | 0.00 | 0.00 | 0.00 | 71 | 1014.0 |
| 20260906003634 | 70 | 314 | 2.6 | 4.3 | 0.00 | 0.00 | 0.00 | 71 | 1014.0 |
| 20260906003332 | 71 | 312 | 2.6 | 4.3 | 0.00 | 0.00 | 0.00 | 70 | 1014.0 |
| 20260906003318 | 71 | 316 | 2.6 | 3.5 | 0.00 | 0.00 | 0.00 | 71 | 1014.0 |
| 20260906003235 | 70 | 291 | 2.6 | 4.3 | 0.00 | 0.00 | 0.00 | 71 | 1014.0 |
| 20260906003100 | 70 | 291 | 2.6 | 4.3 | 0.00 | 0.00 | 0.00 | 71 | 1014.0 |
| 20260906003008 | 70 | 308 | 2.6 | 4.3 | 0.00 | 0.00 | 0.00 | 71 | 1014.0 |
| 20260906002935 | 70 | 292 | 2.6 | 4.3 | 0.00 | 0.00 | 0.00 | 71 | 1014.0 |
| 20260906002810 | 70 | 293 | 2.6 | 4.3 | 0.00 | 0.00 | 0.00 | 71 | 1013.9 |
| 20260906002426 | 70 | 303 | 2.6 | 4.3 | 0.00 | 0.00 | 0.00 | 71 | 1014.0 |
| 20260906002404 | 70 | 304 | 2.6 | 4.3 | 0.00 | 0.00 | 0.00 | 71 | 1014.0 |
| 20260906002236 | 70 | 310 | 2.6 | 4.3 | 0.00 | 0.00 | 0.00 | 71 | 1014.1 |
| 20260906002105 | 70 | 288 | 2.6 | 4.3 | 0.00 | 0.00 | 0.00 | 71 | 1014.0 |
| 20260906002008 | 71 | 318 | 2.6 | 4.3 | 0.00 | 0.00 | 0.00 | 71 | 1014.0 |
| 20260906001926 | 71 | 319 | 2.6 | 4.3 | 0.00 | 0.00 | 0.00 | 71 | 1014.0 |
| 20260906001812 | 71 | 306 | 2.6 | 4.3 | 0.00 | 0.00 | 0.00 | 71 | 1014.0 |
| 20260906001643 | 71 | 335 | 2.6 | 4.3 | 0.00 | 0.00 | 0.00 | 70 | 1014.0 |
| 20260906001312 | 71 | 322 | 2.6 | 4.3 | 0.00 | 0.00 | 0.00 | 70 | 1014.0 |
| 20260906001148 | 71 | 287 | 2.6 | 5.2 | 0.00 | 0.00 | 0.00 | 70 | 1014.0 |
| 20260906001058 | 71 | 312 | 2.6 | 5.2 | 0.00 | 0.00 | 0.00 | 70 | 1014.1 |
| 20260906001020 | 71 | 323 | 2.6 | 5.2 | 0.00 | 0.00 | 0.00 | 70 | 1014.1 |
| 20260906000857 | 71 | 313 | 2.6 | 5.2 | 0.00 | 0.00 | 0.00 | 70 | 1014.0 |
| 20260906000708 | 71 | 292 | 2.6 | 5.2 | 0.00 | 0.00 | 0.00 | 71 | 1014.1 |
| 20260906000501 | 71 | 322 | 2.6 | 5.2 | 0.00 | 0.00 | 0.00 | 71 | 1014.0 |
| 20260906000305 | 71 | 325 | 1.7 | 5.2 | 0.00 | 0.00 | 0.00 | 71 | 1014.0 |
| 20260906000207 | 71 | 305 | 1.7 | 5.2 | 0.00 | 0.00 | 0.00 | 71 | 1014.0 |
| 20260906000039 | 71 | 295 | 1.7 | 3.5 | 0.00 | 0.00 | 0.00 | 71 | 1014.0 |
| 20260905235829 | 71 | 308 | 1.7 | 3.5 | 0.00 | 0.00 | 0.00 | 71 | 1014.0 |
| 20260905235625 | 71 | 323 | 2.6 | 3.5 | 0.00 | 0.00 | 0.00 | 71 | 1014.0 |
| 20260905235224 | 71 | 332 | 2.6 | 5.2 | 0.00 | 0.00 | 0.00 | 71 | 1014.0 |
| 20260905235052 | 71 | 333 | 3.5 | 5.2 | 0.00 | 0.00 | 0.00 | 71 | 1014.0 |
| 20260905235011 | 71 | 330 | 3.5 | 5.2 | 0.00 | 0.00 | 0.00 | 71 | 1014.0 |
| 20260905234929 | 71 | 327 | 3.5 | 5.2 | 0.00 | 0.00 | 0.00 | 71 | 1014.0 |
| 20260905234812 | 71 | 295 | 3.5 | 5.2 | 0.00 | 0.00 | 0.00 | 71 | 1014.0 |
| 20260905234641 | 71 | 326 | 2.6 | 5.2 | 0.00 | 0.00 | 0.00 | 71 | 1014.1 |
| 20260905234629 | 71 | 317 | 2.6 | 5.2 | 0.00 | 0.00 | 0.00 | 71 | 1014.1 |
| 20260905234503 | 71 | 322 | 1.7 | 4.3 | 0.00 | 0.00 | 0.00 | 70 | 1014.1 |
| 20260905234328 | 72 | 316 | 1.7 | 3.5 | 0.00 | 0.00 | 0.00 | 70 | 1014.0 |
| 20260905233816 | 72 | 294 | 0.9 | 3.5 | 0.00 | 0.00 | 0.00 | 70 | 1014.0 |
| 20260905233648 | 72 | 306 | 0.9 | 3.5 | 0.00 | 0.00 | 0.00 | 70 | 1013.9 |
| 20260905233502 | 72 | 286 | 0.9 | 3.5 | 0.00 | 0.00 | 0.00 | 70 | 1014.0 |
| 20260905233338 | 72 | 279 | 0.9 | 2.6 | 0.00 | 0.00 | 0.00 | 70 | 1014.1 |
| 20260905232952 | 72 | 309 | 0.9 | 3.5 | 0.00 | 0.00 | 0.00 | 70 | 1014.1 |
| 20260905232923 | 72 | 313 | 1.7 | 3.5 | 0.00 | 0.00 | 0.00 | 70 | 1014.0 |
| 20260905232836 | 72 | 325 | 1.7 | 5.2 | 0.00 | 0.00 | 0.00 | 70 | 1013.9 |
| 20260905232721 | 72 | 327 | 2.6 | 5.2 | 0.00 | 0.00 | 0.00 | 70 | 1014.0 |
| 20260905232320 | 72 | 323 | 3.5 | 5.2 | 0.00 | 0.00 | 0.00 | 70 | 1014.0 |
| 20260905232122 | 72 | 321 | 3.5 | 5.2 | 0.00 | 0.00 | 0.00 | 69 | 1014.1 |
| 20260905231913 | 72 | 317 | 3.5 | 6.1 | 0.00 | 0.00 | 0.00 | 70 | 1014.1 |
| 20260905231850 | 72 | 321 | 3.5 | 6.1 | 0.00 | 0.00 | 0.00 | 70 | 1014.1 |
| 20260905231710 | 72 | 323 | 3.5 | 6.1 | 0.00 | 0.00 | 0.00 | 69 | 1014.1 |
| 20260905231511 | 72 | 292 | 3.5 | 6.1 | 0.00 | 0.00 | 0.00 | 69 | 1014.1 |
| 20260905231348 | 72 | 283 | 3.5 | 6.1 | 0.00 | 0.00 | 0.00 | 69 | 1014.2 |
| 20260905231310 | 72 | 298 | 3.5 | 6.1 | 0.00 | 0.00 | 0.00 | 69 | 1014.2 |
| 20260905231111 | 72 | 307 | 3.5 | 6.1 | 0.00 | 0.00 | 0.00 | 69 | 1014.1 |
| 20260905230909 | 73 | 329 | 3.5 | 6.1 | 0.00 | 0.00 | 0.00 | 68 | 1014.1 |
| 20260905230844 | 73 | 309 | 3.5 | 6.1 | 0.00 | 0.00 | 0.00 | 68 | 1014.1 |
| 20260905230710 | 73 | 325 | 3.5 | 6.1 | 0.00 | 0.00 | 0.00 | 68 | 1014.1 |
| 20260905230459 | 73 | 276 | 3.5 | 6.1 | 0.00 | 0.00 | 0.00 | 68 | 1014.2 |
| 20260905230349 | 73 | 292 | 3.5 | 6.1 | 0.00 | 0.00 | 0.00 | 68 | 1014.2 |
| 20260905230300 | 73 | 322 | 3.5 | 6.1 | 0.00 | 0.00 | 0.00 | 68 | 1014.2 |
| 20260905230055 | 73 | 301 | 3.5 | 6.1 | 0.00 | 0.00 | 0.00 | 67 | 1014.3 |
| 20260905225906 | 74 | 306 | 3.5 | 6.1 | 0.00 | 0.00 | 0.00 | 67 | 1014.4 |
| 20260905225845 | 74 | 313 | 3.5 | 6.1 | 0.00 | 0.00 | 0.00 | 67 | 1014.4 |
| 20260905225655 | 74 | 299 | 3.5 | 6.1 | 0.00 | 0.00 | 0.00 | 66 | 1014.3 |
| 20260905225455 | 74 | 314 | 3.5 | 6.1 | 0.00 | 0.00 | 0.00 | 66 | 1014.3 |
| 20260905225347 | 75 | 317 | 3.5 | 6.1 | 0.00 | 0.00 | 0.00 | 66 | 1014.3 |
| 20260905225251 | 75 | 323 | 3.5 | 6.1 | 0.00 | 0.00 | 0.00 | 65 | 1014.3 |
| 20260905225048 | 75 | 314 | 3.5 | 6.1 | 0.00 | 0.00 | 0.00 | 64 | 1014.3 |
| 20260905224908 | 76 | 297 | 3.5 | 5.2 | 0.00 | 0.00 | 0.00 | 64 | 1014.3 |
| 20260905224854 | 76 | 281 | 3.5 | 5.2 | 0.00 | 0.00 | 0.00 | 64 | 1014.3 |
| 20260905224736 | 76 | 309 | 2.6 | 4.3 | 0.00 | 0.00 | 0.00 | 64 | 1014.3 |
| 20260905224614 | 76 | 320 | 1.7 | 4.3 | 0.00 | 0.00 | 0.00 | 63 | 1014.3 |
| 20260905224526 | 77 | 314 | 1.7 | 4.3 | 0.00 | 0.00 | 0.00 | 62 | 1014.3 |
| 20260905224452 | 77 | 298 | 1.7 | 4.3 | 0.00 | 0.01 | 0.00 | 62 | 1014.3 |
| 20260905224048 | 77 | 304 | 0.9 | 4.3 | 0.00 | 0.01 | 0.00 | 62 | 1014.3 |
| 20260905223854 | 77 | 315 | 0.0 | 3.5 | 0.00 | 0.01 | 0.00 | 61 | 1014.2 |
| 20260905223844 | 77 | 297 | 0.0 | 2.6 | 0.00 | 0.01 | 0.00 | 61 | 1014.2 |
| 20260905223714 | 78 | 305 | 0.0 | 0.0 | 0.00 | 0.01 | 0.00 | 59 | 1014.3 |
| 20260905223649 | 77 | 284 | 0.0 | 0.0 | 0.00 | 0.01 | 0.00 | 61 | 1014.2 |
| 20260905223525 | 78 | 299 | 0.0 | 0.0 | 0.00 | 0.01 | 0.00 | 60 | 1014.3 |
| 20260905223434 | 78 | 304 | 0.0 | 0.0 | 0.00 | 0.01 | 0.00 | 60 | 1014.3 |
| 20260905223353 | 78 | 304 | 0.0 | 0.0 | 0.00 | 0.01 | 0.00 | 60 | 1014.3 |
| 20260905223223 | 78 | 305 | 0.0 | 0.0 | 0.00 | 0.01 | 0.00 | 60 | 1014.3 |
| 20260905222832 | 78 | 304 | 0.0 | 0.0 | 0.00 | 0.01 | 0.00 | 59 | 1014.3 |
| 20260905222629 | 78 | 305 | 0.0 | 0.0 | 0.00 | 0.01 | 0.00 | 59 | 1014.3 |
| 20260905222431 | 78 | 305 | 0.0 | 0.0 | 0.00 | 0.01 | 0.00 | 59 | 1014.3 |
| 20260905222333 | 78 | 304 | 0.0 | 0.0 | 0.00 | 0.01 | 0.00 | 58 | 1014.3 |
| 20260905222222 | 78 | 304 | 0.0 | 0.0 | 0.00 | 0.01 | 0.00 | 58 | 1014.3 |
| 20260905222026 | 78 | 0 | 0.0 | 0.0 | 0.00 | 0.01 | 0.00 | 56 | 1014.3 |
| 20260905221832 | 78 | 5 | 0.0 | 0.0 | 0.00 | 0.01 | 0.00 | 56 | 1014.3 |
| 20260905221810 | 78 | 0 | 0.0 | 0.0 | 0.00 | 0.01 | 0.00 | 56 | 1014.3 |
| 20260905221606 | 78 | 9 | 0.0 | 0.0 | 0.00 | 0.01 | 0.00 | 56 | 1014.3 |
| 20260905221410 | 78 | 23 | 0.0 | 0.0 | 0.00 | 0.01 | 0.00 | 56 | 1014.3 |
| 20260905221337 | 78 | 23 | 0.0 | 0.0 | 0.00 | 0.01 | 0.00 | 56 | 1014.3 |
| 20260905221205 | 78 | 40 | 0.0 | 0.0 | 0.00 | 0.01 | 0.00 | 56 | 1014.3 |
| 20260905221005 | 78 | 41 | 0.0 | 0.0 | 0.00 | 0.01 | 0.00 | 56 | 1014.2 |
| 20260905220838 | 78 | 38 | 0.0 | 0.0 | 0.00 | 0.01 | 0.00 | 56 | 1014.2 |
| 20260905220805 | 78 | 38 | 0.0 | 0.0 | 0.00 | 0.01 | 0.00 | 56 | 1014.2 |
| 20260905220607 | 78 | 30 | 0.0 | 0.0 | 0.00 | 0.01 | 0.00 | 56 | 1014.2 |
| 20260905220409 | 78 | 40 | 0.0 | 0.0 | 0.00 | 0.01 | 0.00 | 56 | 1014.2 |
| 20260905220329 | 78 | 40 | 0.0 | 0.0 | 0.00 | 0.01 | 0.00 | 56 | 1014.2 |
| 20260905220159 | 78 | 40 | 0.0 | 0.0 | 0.00 | 0.01 | 0.00 | 56 | 1014.1 |
| 20260905215957 | 78 | 47 | 0.0 | 0.0 | 0.00 | 0.01 | 0.00 | 56 | 1014.1 |
| 20260905215812 | 78 | 47 | 0.0 | 0.0 | 0.00 | 0.01 | 0.00 | 56 | 1014.1 |
| 20260905215751 | 78 | 47 | 0.0 | 0.0 | 0.00 | 0.01 | 0.00 | 56 | 1014.1 |
| 20260905215552 | 78 | 47 | 0.0 | 0.0 | 0.00 | 0.01 | 0.00 | 56 | 1014.1 |
| 20260905215422 | 78 | 47 | 0.0 | 0.0 | 0.00 | 0.01 | 0.00 | 56 | 1014.1 |
| 20260905215350 | 78 | 46 | 0.0 | 0.0 | 0.00 | 0.01 | 0.00 | 56 | 1014.1 |
| 20260905215307 | 78 | 46 | 0.0 | 0.0 | 0.00 | 0.01 | 0.00 | 56 | 1014.1 |
| 20260905215147 | 78 | 47 | 0.0 | 0.0 | 0.00 | 0.01 | 0.00 | 56 | 1014.1 |
| 20260905215019 | 78 | 47 | 0.0 | 0.0 | 0.00 | 0.01 | 0.00 | 56 | 1014.1 |
| 20260905214904 | 79 | 46 | 0.0 | 0.0 | 0.00 | 0.01 | 0.00 | 56 | 1014.0 |
| 20260905214738 | 79 | 63 | 0.0 | 0.0 | 0.00 | 0.01 | 0.00 | 56 | 1014.0 |
| 20260905214705 | 79 | 63 | 0.0 | 1.7 | 0.00 | 0.01 | 0.00 | 56 | 1014.2 |
| 20260905214134 | 79 | 80 | 0.0 | 1.7 | 0.00 | 0.01 | 0.00 | 56 | 1014.2 |
| 20260905213931 | 79 | 80 | 0.0 | 1.7 | 0.00 | 0.01 | 0.00 | 56 | 1014.3 |
| 20260905213728 | 79 | 80 | 0.0 | 1.7 | 0.00 | 0.01 | 0.00 | 56 | 1014.3 |
| 20260905213526 | 79 | 69 | 0.0 | 1.7 | 0.00 | 0.01 | 0.00 | 56 | 1014.3 |
| 20260905213326 | 79 | 69 | 0.0 | 1.7 | 0.00 | 0.01 | 0.00 | 56 | 1014.3 |
| 20260905213251 | 79 | 64 | 0.0 | 0.9 | 0.00 | 0.01 | 0.00 | 56 | 1014.4 |
| 20260905213122 | 79 | 65 | 0.0 | 1.7 | 0.00 | 0.01 | 0.00 | 56 | 1014.4 |
| 20260905212920 | 79 | 63 | 0.0 | 1.7 | 0.00 | 0.01 | 0.00 | 56 | 1014.3 |
| 20260905212749 | 79 | 62 | 0.0 | 1.7 | 0.00 | 0.01 | 0.00 | 57 | 1014.3 |
| 20260905212710 | 79 | 78 | 0.0 | 1.7 | 0.00 | 0.01 | 0.00 | 57 | 1014.3 |
| 20260905212509 | 79 | 64 | 0.0 | 1.7 | 0.00 | 0.01 | 0.00 | 57 | 1014.4 |
| 20260905212311 | 79 | 64 | 0.0 | 1.7 | 0.00 | 0.01 | 0.00 | 57 | 1014.4 |
| 20260905212244 | 79 | 63 | 0.0 | 1.7 | 0.00 | 0.01 | 0.00 | 57 | 1014.4 |
| 20260905212110 | 79 | 83 | 0.0 | 0.0 | 0.00 | 0.01 | 0.00 | 57 | 1014.5 |
| 20260905211909 | 79 | 43 | 0.0 | 0.0 | 0.00 | 0.01 | 0.00 | 57 | 1014.5 |
| 20260905211746 | 79 | 38 | 0.0 | 0.0 | 0.00 | 0.01 | 0.00 | 57 | 1014.5 |
| 20260905211702 | 79 | 38 | 0.0 | 0.0 | 0.00 | 0.01 | 0.00 | 57 | 1014.5 |
| 20260905211502 | 79 | 40 | 0.0 | 0.9 | 0.00 | 0.01 | 0.00 | 57 | 1014.5 |
| 20260905211247 | 79 | 94 | 0.0 | 0.9 | 0.00 | 0.01 | 0.00 | 57 | 1014.5 |
| 20260905211110 | 79 | 94 | 0.0 | 0.9 | 0.00 | 0.01 | 0.00 | 57 | 1014.4 |
| 20260905210904 | 79 | 94 | 0.0 | 0.9 | 0.00 | 0.01 | 0.00 | 57 | 1014.5 |
| 20260905210742 | 79 | 94 | 0.0 | 0.9 | 0.00 | 0.01 | 0.00 | 57 | 1014.5 |
| 20260905210701 | 79 | 94 | 0.0 | 0.9 | 0.00 | 0.01 | 0.00 | 57 | 1014.4 |
| 20260905210502 | 80 | 94 | 0.0 | 0.9 | 0.00 | 0.01 | 0.00 | 57 | 1014.4 |
| 20260905210237 | 80 | 94 | 0.0 | 0.9 | 0.00 | 0.01 | 0.00 | 57 | 1014.4 |
| 20260905210113 | 80 | 94 | 0.0 | 0.9 | 0.00 | 0.01 | 0.00 | 57 | 1014.4 |
| 20260905205844 | 80 | 94 | 0.0 | 0.9 | 0.00 | 0.01 | 0.01 | 57 | 1014.4 |
| 20260905205740 | 80 | 94 | 0.0 | 0.9 | 0.00 | 0.01 | 0.01 | 57 | 1014.4 |
| 20260905205636 | 80 | 94 | 0.0 | 0.9 | 0.00 | 0.01 | 0.01 | 57 | 1014.4 |
| 20260905205437 | 80 | 94 | 0.0 | 0.9 | 0.00 | 0.01 | 0.01 | 57 | 1014.4 |
| 20260905205236 | 80 | 94 | 0.0 | 0.9 | 0.00 | 0.01 | 0.01 | 57 | 1014.5 |
| 20260905205026 | 80 | 94 | 0.0 | 0.9 | 0.00 | 0.01 | 0.01 | 57 | 1014.5 |
| 20260905205006 | 80 | 94 | 0.9 | 2.6 | 0.00 | 0.01 | 0.01 | 58 | 1014.5 |
| 20260905204859 | 80 | 94 | 0.0 | 0.9 | 0.00 | 0.01 | 0.01 | 57 | 1014.5 |
| 20260905204810 | 80 | 94 | 0.0 | 0.9 | 0.00 | 0.01 | 0.01 | 57 | 1014.5 |
| 20260905204734 | 80 | 94 | 0.0 | 0.9 | 0.00 | 0.01 | 0.01 | 57 | 1014.5 |
| 20260905204617 | 80 | 94 | 0.0 | 1.7 | 0.00 | 0.01 | 0.01 | 57 | 1014.5 |
| 20260905204451 | 80 | 94 | 0.0 | 2.6 | 0.00 | 0.01 | 0.01 | 57 | 1014.5 |
| 20260905204122 | 80 | 94 | 0.9 | 2.6 | 0.00 | 0.01 | 0.01 | 57 | 1014.6 |
| 20260905204009 | 80 | 94 | 0.9 | 2.6 | 0.00 | 0.01 | 0.01 | 58 | 1014.5 |
| 20260905203604 | 80 | 94 | 0.9 | 2.6 | 0.00 | 0.01 | 0.01 | 57 | 1014.5 |
| 20260905203408 | 80 | 95 | 0.9 | 2.6 | 0.00 | 0.01 | 0.01 | 57 | 1014.5 |
| 20260905203220 | 80 | 74 | 0.9 | 2.6 | 0.00 | 0.01 | 0.01 | 58 | 1014.6 |
| 20260905203206 | 80 | 74 | 0.9 | 2.6 | 0.00 | 0.01 | 0.01 | 58 | 1014.6 |
| 20260905203006 | 80 | 82 | 0.9 | 2.6 | 0.00 | 0.01 | 0.01 | 58 | 1014.5 |
| 20260905202805 | 80 | 92 | 0.0 | 2.6 | 0.00 | 0.01 | 0.01 | 57 | 1014.6 |
| 20260905202709 | 80 | 92 | 0.0 | 2.6 | 0.00 | 0.01 | 0.01 | 58 | 1014.6 |
| 20260905202559 | 80 | 95 | 0.0 | 2.6 | 0.00 | 0.01 | 0.01 | 58 | 1014.6 |
| 20260905202408 | 80 | 54 | 0.0 | 2.6 | 0.00 | 0.01 | 0.01 | 57 | 1014.6 |
| 20260905202201 | 81 | 138 | 0.0 | 0.0 | 0.00 | 0.01 | 0.01 | 57 | 1014.6 |
| 20260905201951 | 81 | 138 | 0.0 | 0.0 | 0.00 | 0.01 | 0.01 | 57 | 1014.6 |
| 20260905201744 | 81 | 138 | 0.0 | 0.0 | 0.00 | 0.01 | 0.01 | 57 | 1014.6 |
| 20260905201659 | 81 | 138 | 0.0 | 0.0 | 0.00 | 0.01 | 0.01 | 57 | 1014.6 |
| 20260905201537 | 81 | 138 | 0.0 | 0.0 | 0.00 | 0.01 | 0.01 | 57 | 1014.6 |
| 20260905201337 | 81 | 138 | 0.0 | 0.0 | 0.00 | 0.01 | 0.01 | 57 | 1014.6 |
| 20260905201128 | 81 | 138 | 0.0 | 0.0 | 0.00 | 0.01 | 0.01 | 57 | 1014.5 |
| 20260905200930 | 81 | 138 | 0.0 | 0.0 | 0.00 | 0.01 | 0.01 | 57 | 1014.5 |
| 20260905200722 | 81 | 138 | 0.0 | 0.0 | 0.00 | 0.01 | 0.01 | 57 | 1014.5 |
| 20260905200639 | 81 | 138 | 0.0 | 0.0 | 0.00 | 0.01 | 0.01 | 57 | 1014.5 |
| 20260905200523 | 81 | 138 | 0.0 | 0.0 | 0.00 | 0.01 | 0.01 | 57 | 1014.5 |
| 20260905200313 | 81 | 138 | 0.0 | 0.0 | 0.00 | 0.01 | 0.01 | 57 | 1014.5 |
| 20260905200136 | 81 | 138 | 0.0 | 0.0 | 0.00 | 0.01 | 0.01 | 57 | 1014.5 |
| 20260905200109 | 81 | 139 | 0.0 | 0.0 | 0.00 | 0.01 | 0.01 | 57 | 1014.5 |
| 20260905195906 | 82 | 138 | 0.0 | 0.0 | 0.00 | 0.01 | 0.01 | 56 | 1014.5 |
| 20260905195714 | 82 | 138 | 0.0 | 0.9 | 0.00 | 0.01 | 0.01 | 56 | 1014.6 |
| 20260905195625 | 82 | 139 | 0.0 | 0.9 | 0.00 | 0.01 | 0.01 | 56 | 1014.6 |
| 20260905195504 | 82 | 138 | 0.0 | 0.9 | 0.00 | 0.01 | 0.01 | 56 | 1014.5 |
| 20260905195341 | 85 | 131 | 0.9 | 2.6 | 0.00 | 0.01 | 0.01 | 66 | 1013.7 |
| 20260905195259 | 82 | 139 | 0.0 | 0.9 | 0.00 | 0.01 | 0.01 | 56 | 1014.5 |
| 20260905195153 | 82 | 112 | 1.7 | 2.6 | 0.00 | 0.01 | 0.01 | 57 | 1014.4 |
| 20260905195123 | 82 | 138 | 0.0 | 0.9 | 0.00 | 0.01 | 0.01 | 56 | 1014.6 |
| 20260905195111 | 82 | 122 | 0.0 | 3.5 | 0.00 | 0.01 | 0.01 | 58 | 1014.5 |
| 20260905195055 | 82 | 138 | 0.0 | 0.9 | 0.00 | 0.01 | 0.01 | 56 | 1014.6 |
| 20260905195045 | 82 | 123 | 0.0 | 2.6 | 0.00 | 0.01 | 0.01 | 58 | 1014.5 |
| 20260905194952 | 83 | 151 | 0.0 | 1.7 | 0.00 | 0.01 | 0.01 | 63 | 1014.2 |
| 20260905194923 | 83 | 117 | 0.9 | 2.6 | 0.00 | 0.01 | 0.01 | 65 | 1014.0 |
| 20260905194901 | 82 | 138 | 0.0 | 1.7 | 0.00 | 0.01 | 0.01 | 56 | 1014.5 |
| 20260905194739 | 82 | 139 | 0.0 | 1.7 | 0.00 | 0.01 | 0.01 | 56 | 1014.5 |
| 20260905194715 | 82 | 138 | 0.0 | 1.7 | 0.00 | 0.01 | 0.01 | 56 | 1014.5 |
| 20260905194617 | 82 | 138 | 0.0 | 1.7 | 0.00 | 0.01 | 0.01 | 56 | 1014.5 |
| 20260905194457 | 82 | 138 | 0.0 | 1.7 | 0.00 | 0.01 | 0.01 | 56 | 1014.5 |
| 20260905194152 | 83 | 128 | 0.9 | 3.5 | 0.00 | 0.01 | 0.01 | 65 | 1014.1 |
| 20260905194137 | 84 | 114 | 0.9 | 3.5 | 0.00 | 0.01 | 0.01 | 65 | 1014.0 |
| 20260905194112 | 82 | 138 | 0.9 | 3.5 | 0.00 | 0.01 | 0.01 | 56 | 1014.5 |
| 20260905194039 | 82 | 138 | 0.9 | 3.5 | 0.00 | 0.01 | 0.01 | 56 | 1014.5 |
| 20260905193903 | 82 | 138 | 0.9 | 3.5 | 0.00 | 0.01 | 0.01 | 56 | 1014.5 |
| 20260905193724 | 82 | 138 | 0.9 | 3.5 | 0.00 | 0.01 | 0.01 | 57 | 1014.4 |
| 20260905193625 | 82 | 138 | 0.9 | 3.5 | 0.00 | 0.01 | 0.01 | 57 | 1014.4 |
| 20260905193501 | 82 | 117 | 0.9 | 3.5 | 0.00 | 0.01 | 0.01 | 57 | 1014.5 |
| 20260905193121 | 82 | 110 | 0.9 | 2.6 | 0.00 | 0.01 | 0.01 | 57 | 1014.4 |
| 20260905193011 | 82 | 132 | 0.9 | 3.5 | 0.00 | 0.01 | 0.01 | 57 | 1014.4 |
| 20260905192855 | 82 | 120 | 0.9 | 3.5 | 0.00 | 0.01 | 0.01 | 57 | 1014.4 |
| 20260905192835 | 82 | 109 | 0.9 | 3.5 | 0.00 | 0.01 | 0.01 | 57 | 1014.4 |
| 20260905192732 | 82 | 127 | 0.9 | 3.5 | 0.00 | 0.01 | 0.01 | 57 | 1014.4 |
| 20260905192612 | 82 | 145 | 0.9 | 3.5 | 0.00 | 0.01 | 0.01 | 57 | 1014.5 |
| 20260905192242 | 82 | 123 | 0.0 | 3.5 | 0.00 | 0.01 | 0.01 | 58 | 1014.5 |
| 20260905192133 | 82 | 106 | 0.0 | 2.6 | 0.00 | 0.01 | 0.01 | 58 | 1014.4 |
| 20260905192005 | 82 | 123 | 0.0 | 2.6 | 0.00 | 0.01 | 0.01 | 58 | 1014.5 |
| 20260905191624 | 82 | 122 | 0.0 | 2.6 | 0.00 | 0.01 | 0.01 | 59 | 1014.4 |
| 20260905191327 | 87 | 187 | 0.0 | 2.6 | 0.00 | 0.01 | 0.01 | 63 | 1013.7 |
| 20260905191300 | 87 | 263 | 0.0 | 2.6 | 0.00 | 0.01 | 0.01 | 62 | 1013.7 |
| 20260905191237 | 88 | 140 | 1.7 | 6.1 | 0.00 | 0.01 | 0.01 | 58 | 1013.6 |
| 20260905191214 | 82 | 122 | 0.0 | 2.6 | 0.00 | 0.01 | 0.01 | 59 | 1014.4 |
| 20260905191106 | 82 | 123 | 0.9 | 3.5 | 0.00 | 0.01 | 0.01 | 59 | 1014.5 |
| 20260905191049 | 89 | 198 | 2.6 | 6.1 | 0.00 | 0.01 | 0.01 | 54 | 1013.6 |
| 20260905191016 | 82 | 122 | 0.9 | 3.5 | 0.00 | 0.01 | 0.01 | 59 | 1014.5 |
| 20260905190959 | 90 | 164 | 1.7 | 8.7 | 0.00 | 0.01 | 0.01 | 53 | 1013.6 |
| 20260905190843 | 91 | 187 | 2.6 | 7.8 | 0.00 | 0.01 | 0.01 | 49 | 1013.5 |
| 20260905190809 | 82 | 141 | 0.9 | 3.5 | 0.00 | 0.01 | 0.01 | 59 | 1014.5 |
| 20260905190742 | 92 | 160 | 2.6 | 6.1 | 0.00 | 0.01 | 0.01 | 49 | 1013.4 |
| 20260905190615 | 82 | 142 | 0.9 | 3.5 | 0.00 | 0.01 | 0.01 | 59 | 1014.5 |
| 20260905190559 | 82 | 141 | 0.9 | 3.5 | 0.00 | 0.01 | 0.01 | 59 | 1014.5 |
| 20260905190446 | 82 | 123 | 0.9 | 3.5 | 0.00 | 0.01 | 0.01 | 59 | 1014.4 |
| 20260905190318 | 82 | 109 | 0.9 | 3.5 | 0.00 | 0.01 | 0.01 | 59 | 1014.5 |
| 20260905190216 | 82 | 145 | 0.9 | 2.6 | 0.00 | 0.01 | 0.01 | 59 | 1014.5 |
| 20260905190142 | 82 | 113 | 0.9 | 2.6 | 0.00 | 0.01 | 0.01 | 59 | 1014.4 |
| 20260905190018 | 82 | 140 | 0.9 | 2.6 | 0.00 | 0.01 | 0.01 | 59 | 1014.5 |
| 20260905185902 | 82 | 155 | 0.0 | 2.6 | 0.00 | 0.01 | 0.01 | 59 | 1014.5 |
| 20260905185848 | 82 | 155 | 0.0 | 2.6 | 0.00 | 0.01 | 0.01 | 59 | 1014.5 |
| 20260905185744 | 82 | 136 | 0.0 | 2.6 | 0.00 | 0.01 | 0.01 | 59 | 1014.5 |
| 20260905185607 | 82 | 136 | 0.0 | 2.6 | 0.00 | 0.01 | 0.01 | 59 | 1014.5 |
| 20260905185518 | 82 | 125 | 0.0 | 2.6 | 0.00 | 0.01 | 0.01 | 59 | 1014.6 |
| 20260905185451 | 82 | 125 | 0.0 | 2.6 | 0.00 | 0.01 | 0.01 | 60 | 1014.5 |
| 20260905185335 | 82 | 129 | 0.0 | 2.6 | 0.00 | 0.01 | 0.01 | 60 | 1014.5 |
| 20260905185219 | 82 | 129 | 0.9 | 2.6 | 0.00 | 0.01 | 0.01 | 60 | 1014.5 |
| 20260905185151 | 82 | 129 | 0.9 | 2.6 | 0.00 | 0.01 | 0.01 | 60 | 1014.5 |
| 20260905185057 | 82 | 129 | 0.9 | 2.6 | 0.00 | 0.01 | 0.01 | 60 | 1014.4 |
| 20260905184930 | 82 | 129 | 0.9 | 2.6 | 0.00 | 0.01 | 0.01 | 60 | 1014.4 |
| 20260905184832 | 82 | 129 | 0.9 | 2.6 | 0.00 | 0.01 | 0.01 | 60 | 1014.4 |
| 20260905184802 | 82 | 129 | 0.9 | 2.6 | 0.00 | 0.01 | 0.01 | 60 | 1014.5 |
| 20260905184651 | 82 | 119 | 0.9 | 2.6 | 0.00 | 0.01 | 0.01 | 60 | 1014.4 |
| 20260905184526 | 82 | 152 | 0.9 | 2.6 | 0.00 | 0.01 | 0.01 | 61 | 1014.5 |
| 20260905184512 | 82 | 137 | 0.9 | 2.6 | 0.00 | 0.01 | 0.01 | 61 | 1014.5 |
| 20260905184108 | 82 | 150 | 0.9 | 1.7 | 0.00 | 0.01 | 0.01 | 61 | 1014.4 |
| 20260905183947 | 82 | 151 | 0.9 | 2.6 | 0.00 | 0.01 | 0.01 | 62 | 1014.4 |
| 20260905183900 | 82 | 150 | 0.9 | 2.6 | 0.00 | 0.01 | 0.01 | 62 | 1014.3 |
| 20260905183818 | 82 | 151 | 0.9 | 2.6 | 0.00 | 0.01 | 0.01 | 62 | 1014.3 |
| 20260905183644 | 82 | 151 | 0.9 | 2.6 | 0.00 | 0.01 | 0.01 | 62 | 1014.4 |
| 20260905183521 | 83 | 150 | 0.9 | 2.6 | 0.00 | 0.01 | 0.01 | 62 | 1014.3 |
| 20260905183510 | 83 | 151 | 0.9 | 2.6 | 0.00 | 0.01 | 0.01 | 62 | 1014.3 |
| 20260905183333 | 83 | 150 | 0.0 | 2.6 | 0.00 | 0.01 | 0.01 | 62 | 1014.3 |
| 20260905183225 | 83 | 151 | 0.0 | 1.7 | 0.00 | 0.01 | 0.01 | 62 | 1014.3 |
| 20260905183132 | 83 | 151 | 0.0 | 0.9 | 0.00 | 0.01 | 0.01 | 63 | 1014.3 |
| 20260905183055 | 83 | 151 | 0.0 | 0.9 | 0.00 | 0.01 | 0.01 | 63 | 1014.3 |
| 20260905182949 | 83 | 150 | 0.0 | 0.9 | 0.00 | 0.01 | 0.01 | 63 | 1014.3 |
| 20260905182829 | 83 | 151 | 0.0 | 1.7 | 0.00 | 0.01 | 0.01 | 63 | 1014.2 |
| 20260905182459 | 83 | 150 | 0.0 | 1.7 | 0.00 | 0.01 | 0.01 | 63 | 1014.1 |
| 20260905182330 | 83 | 151 | 0.0 | 1.7 | 0.00 | 0.01 | 0.01 | 63 | 1014.1 |
| 20260905182248 | 83 | 151 | 0.9 | 1.7 | 0.00 | 0.01 | 0.01 | 63 | 1014.2 |
| 20260905182205 | 83 | 151 | 0.9 | 2.6 | 0.00 | 0.01 | 0.01 | 63 | 1014.1 |
| 20260905182057 | 83 | 151 | 0.9 | 2.6 | 0.00 | 0.01 | 0.01 | 63 | 1014.1 |
| 20260905181946 | 83 | 151 | 0.9 | 2.6 | 0.00 | 0.01 | 0.01 | 64 | 1014.1 |
| 20260905181926 | 83 | 150 | 0.9 | 2.6 | 0.00 | 0.01 | 0.01 | 64 | 1014.1 |
| 20260905181756 | 83 | 151 | 0.9 | 2.6 | 0.00 | 0.01 | 0.01 | 64 | 1014.1 |
| 20260905181643 | 83 | 151 | 0.9 | 2.6 | 0.00 | 0.01 | 0.01 | 64 | 1014.0 |
| 20260905181308 | 83 | 166 | 0.9 | 2.6 | 0.00 | 0.01 | 0.01 | 65 | 1014.1 |
| 20260905181147 | 83 | 157 | 0.9 | 2.6 | 0.00 | 0.01 | 0.01 | 65 | 1014.1 |
| 20260905180810 | 83 | 141 | 0.9 | 3.5 | 0.00 | 0.01 | 0.01 | 65 | 1014.1 |
| 20260905180634 | 83 | 186 | 0.9 | 3.5 | 0.00 | 0.01 | 0.01 | 66 | 1014.0 |
| 20260905180504 | 84 | 158 | 0.9 | 3.5 | 0.00 | 0.01 | 0.01 | 65 | 1014.0 |
| 20260905180346 | 84 | 130 | 1.7 | 3.5 | 0.00 | 0.01 | 0.01 | 65 | 1014.1 |
| 20260905180226 | 84 | 142 | 1.7 | 3.5 | 0.00 | 0.01 | 0.01 | 65 | 1014.0 |
| 20260905180117 | 84 | 140 | 1.7 | 3.5 | 0.00 | 0.01 | 0.01 | 65 | 1014.0 |
| 20260905180100 | 84 | 122 | 0.9 | 3.5 | 0.00 | 0.01 | 0.01 | 65 | 1014.0 |
| 20260905175937 | 84 | 133 | 1.7 | 5.2 | 0.00 | 0.01 | 0.01 | 65 | 1014.0 |
| 20260905175818 | 84 | 158 | 1.7 | 5.2 | 0.00 | 0.01 | 0.01 | 65 | 1013.9 |
| 20260905175753 | 84 | 170 | 1.7 | 5.2 | 0.00 | 0.01 | 0.01 | 65 | 1013.9 |
| 20260905175704 | 84 | 167 | 0.9 | 5.2 | 0.00 | 0.01 | 0.01 | 65 | 1013.9 |
| 20260905175545 | 84 | 130 | 0.9 | 5.2 | 0.00 | 0.01 | 0.01 | 65 | 1013.8 |
| 20260905175448 | 84 | 179 | 0.9 | 5.2 | 0.00 | 0.01 | 0.01 | 65 | 1013.8 |
| 20260905175421 | 84 | 128 | 0.9 | 5.2 | 0.00 | 0.01 | 0.01 | 65 | 1013.8 |
| 20260905175301 | 85 | 138 | 0.9 | 3.5 | 0.00 | 0.01 | 0.01 | 65 | 1013.8 |
| 20260905175143 | 85 | 130 | 0.9 | 3.5 | 0.00 | 0.01 | 0.01 | 65 | 1013.7 |
| 20260905175117 | 85 | 156 | 0.9 | 3.5 | 0.00 | 0.01 | 0.01 | 65 | 1013.7 |
| 20260905175023 | 85 | 114 | 1.7 | 3.5 | 0.00 | 0.01 | 0.01 | 65 | 1013.7 |
| 20260905174909 | 85 | 153 | 0.9 | 2.6 | 0.00 | 0.01 | 0.01 | 65 | 1013.7 |
| 20260905173926 | 85 | 114 | 0.9 | 2.6 | 0.00 | 0.01 | 0.01 | 66 | 1013.7 |
| 20260905173803 | 85 | 165 | 0.9 | 2.6 | 0.00 | 0.01 | 0.01 | 66 | 1013.8 |
| 20260905173657 | 85 | 157 | 0.9 | 3.5 | 0.00 | 0.01 | 0.01 | 65 | 1013.8 |
| 20260905173635 | 85 | 178 | 0.9 | 3.5 | 0.00 | 0.01 | 0.01 | 65 | 1013.8 |
| 20260905173545 | 85 | 150 | 0.9 | 3.5 | 0.00 | 0.01 | 0.01 | 65 | 1013.8 |
| 20260905173434 | 85 | 154 | 0.9 | 3.5 | 0.00 | 0.01 | 0.01 | 65 | 1013.8 |
| 20260905173339 | 86 | 190 | 0.9 | 3.5 | 0.00 | 0.01 | 0.01 | 65 | 1013.8 |
| 20260905173315 | 86 | 134 | 0.9 | 3.5 | 0.00 | 0.01 | 0.01 | 65 | 1013.8 |
| 20260905173157 | 86 | 119 | 0.9 | 3.5 | 0.00 | 0.01 | 0.01 | 65 | 1013.9 |
| 20260905173049 | 86 | 157 | 0.0 | 2.6 | 0.00 | 0.01 | 0.01 | 64 | 1013.9 |
| 20260905173032 | 86 | 158 | 0.0 | 2.6 | 0.00 | 0.01 | 0.01 | 64 | 1013.9 |
| 20260905172928 | 86 | 157 | 0.0 | 2.6 | 0.00 | 0.01 | 0.01 | 64 | 1013.9 |
| 20260905172820 | 86 | 158 | 0.0 | 2.6 | 0.00 | 0.01 | 0.01 | 64 | 1013.9 |
| 20260905172724 | 86 | 158 | 0.0 | 2.6 | 0.00 | 0.01 | 0.01 | 64 | 1013.8 |
| 20260905172654 | 86 | 158 | 0.0 | 2.6 | 0.00 | 0.01 | 0.01 | 64 | 1013.8 |
| 20260905172535 | 86 | 188 | 0.0 | 0.9 | 0.00 | 0.01 | 0.01 | 63 | 1013.7 |
| 20260905172426 | 86 | 187 | 0.0 | 1.7 | 0.00 | 0.01 | 0.01 | 63 | 1013.8 |
| 20260905172407 | 86 | 188 | 0.0 | 1.7 | 0.00 | 0.01 | 0.01 | 63 | 1013.8 |
| 20260905172305 | 86 | 188 | 0.0 | 1.7 | 0.00 | 0.01 | 0.01 | 63 | 1013.8 |
| 20260905172148 | 87 | 188 | 0.0 | 2.6 | 0.00 | 0.01 | 0.01 | 63 | 1013.7 |
| 20260905171818 | 87 | 188 | 0.0 | 2.6 | 0.00 | 0.01 | 0.01 | 63 | 1013.7 |
| 20260905171703 | 87 | 188 | 0.0 | 2.6 | 0.00 | 0.01 | 0.01 | 62 | 1013.7 |
| 20260905171553 | 87 | 263 | 0.0 | 2.6 | 0.00 | 0.01 | 0.01 | 62 | 1013.7 |
| 20260905171239 | 87 | 152 | 0.0 | 2.6 | 0.00 | 0.01 | 0.01 | 62 | 1013.7 |
| 20260905171128 | 87 | 205 | 0.0 | 1.7 | 0.00 | 0.01 | 0.01 | 62 | 1013.7 |
| 20260905171049 | 87 | 205 | 0.0 | 2.6 | 0.00 | 0.01 | 0.01 | 62 | 1013.7 |
| 20260905171020 | 87 | 205 | 0.9 | 3.5 | 0.00 | 0.01 | 0.01 | 61 | 1013.6 |
| 20260905170849 | 87 | 205 | 0.9 | 4.3 | 0.00 | 0.01 | 0.01 | 61 | 1013.6 |
| 20260905170745 | 87 | 205 | 0.9 | 4.3 | 0.00 | 0.01 | 0.01 | 61 | 1013.6 |
| 20260905170733 | 87 | 205 | 1.7 | 4.3 | 0.00 | 0.01 | 0.01 | 61 | 1013.6 |
| 20260905170612 | 87 | 202 | 1.7 | 5.2 | 0.00 | 0.01 | 0.01 | 61 | 1013.7 |
| 20260905170459 | 87 | 174 | 2.6 | 6.1 | 0.00 | 0.01 | 0.01 | 60 | 1013.6 |
| 20260905170419 | 87 | 135 | 2.6 | 6.1 | 0.00 | 0.01 | 0.01 | 60 | 1013.6 |
| 20260905170337 | 87 | 154 | 2.6 | 6.1 | 0.00 | 0.01 | 0.01 | 60 | 1013.6 |
| 20260905170221 | 88 | 152 | 1.7 | 6.1 | 0.00 | 0.01 | 0.01 | 59 | 1013.6 |
| 20260905165849 | 88 | 227 | 1.7 | 6.1 | 0.00 | 0.01 | 0.01 | 58 | 1013.6 |
| 20260905165728 | 88 | 178 | 1.7 | 6.1 | 0.00 | 0.01 | 0.01 | 58 | 1013.6 |
| 20260905165614 | 88 | 169 | 0.9 | 5.2 | 0.00 | 0.01 | 0.01 | 56 | 1013.6 |
| 20260905165536 | 88 | 160 | 0.9 | 5.2 | 0.00 | 0.01 | 0.01 | 56 | 1013.6 |
| 20260905165455 | 88 | 180 | 1.7 | 5.2 | 0.00 | 0.01 | 0.01 | 56 | 1013.6 |
| 20260905165334 | 88 | 176 | 1.7 | 5.2 | 0.00 | 0.01 | 0.01 | 55 | 1013.6 |
| 20260905165230 | 88 | 180 | 1.7 | 5.2 | 0.00 | 0.01 | 0.01 | 55 | 1013.6 |
| 20260905165210 | 88 | 190 | 1.7 | 5.2 | 0.00 | 0.01 | 0.01 | 55 | 1013.6 |
| 20260905165059 | 89 | 182 | 1.7 | 5.2 | 0.00 | 0.01 | 0.01 | 54 | 1013.6 |
| 20260905164947 | 89 | 182 | 2.6 | 6.1 | 0.00 | 0.01 | 0.01 | 54 | 1013.6 |
| 20260905164616 | 89 | 211 | 2.6 | 6.1 | 0.00 | 0.01 | 0.01 | 53 | 1013.6 |
| 20260905164504 | 89 | 160 | 2.6 | 6.1 | 0.00 | 0.01 | 0.01 | 53 | 1013.5 |
| 20260905164139 | 89 | 206 | 2.6 | 6.1 | 0.00 | 0.01 | 0.01 | 53 | 1013.6 |
| 20260905164121 | 89 | 182 | 2.6 | 6.1 | 0.00 | 0.01 | 0.01 | 52 | 1013.6 |
| 20260905164014 | 90 | 158 | 2.6 | 8.7 | 0.00 | 0.01 | 0.01 | 52 | 1013.6 |
| 20260905163905 | 90 | 161 | 1.7 | 8.7 | 0.00 | 0.01 | 0.01 | 53 | 1013.6 |
| 20260905163533 | 90 | 132 | 1.7 | 8.7 | 0.00 | 0.01 | 0.01 | 52 | 1013.6 |
| 20260905163418 | 90 | 244 | 2.6 | 8.7 | 0.00 | 0.01 | 0.01 | 52 | 1013.6 |
| 20260905163312 | 90 | 148 | 2.6 | 8.7 | 0.00 | 0.01 | 0.01 | 52 | 1013.7 |
| 20260905163249 | 90 | 167 | 2.6 | 8.7 | 0.00 | 0.01 | 0.01 | 52 | 1013.7 |
| 20260905163135 | 91 | 187 | 1.7 | 5.2 | 0.00 | 0.01 | 0.01 | 51 | 1013.6 |
| 20260905163016 | 91 | 169 | 1.7 | 5.2 | 0.00 | 0.01 | 0.01 | 51 | 1013.6 |
| 20260905162951 | 91 | 215 | 2.6 | 5.2 | 0.00 | 0.01 | 0.01 | 51 | 1013.5 |
| 20260905162852 | 91 | 171 | 2.6 | 5.2 | 0.00 | 0.01 | 0.01 | 50 | 1013.5 |
| 20260905162724 | 91 | 146 | 2.6 | 7.8 | 0.00 | 0.01 | 0.01 | 50 | 1013.5 |
| 20260905162640 | 91 | 185 | 2.6 | 7.8 | 0.00 | 0.01 | 0.01 | 50 | 1013.5 |
| 20260905162612 | 91 | 190 | 2.6 | 7.8 | 0.00 | 0.01 | 0.01 | 50 | 1013.5 |
| 20260905162509 | 91 | 156 | 2.6 | 7.8 | 0.00 | 0.01 | 0.01 | 49 | 1013.5 |
| 20260905162406 | 91 | 192 | 2.6 | 7.8 | 0.00 | 0.01 | 0.01 | 49 | 1013.5 |
| 20260905162044 | 91 | 181 | 2.6 | 7.8 | 0.00 | 0.01 | 0.01 | 49 | 1013.5 |
| 20260905161918 | 91 | 163 | 2.6 | 6.1 | 0.00 | 0.01 | 0.01 | 49 | 1013.4 |
| 20260905161838 | 91 | 233 | 2.6 | 6.1 | 0.00 | 0.01 | 0.01 | 49 | 1013.4 |
| 20260905161810 | 92 | 149 | 2.6 | 6.1 | 0.00 | 0.01 | 0.01 | 49 | 1013.4 |
| 20260905161659 | 92 | 236 | 2.6 | 6.1 | 0.00 | 0.01 | 0.01 | 49 | 1013.4 |
| 20260905161556 | 92 | 160 | 2.6 | 6.1 | 0.00 | 0.01 | 0.01 | 49 | 1013.4 |
| 20260905161540 | 92 | 163 | 2.6 | 6.1 | 0.00 | 0.01 | 0.01 | 49 | 1013.4 |
| 20260905161436 | 92 | 165 | 2.6 | 6.1 | 0.00 | 0.01 | 0.01 | 48 | 1013.4 |
| 20260905161319 | 92 | 145 | 2.6 | 6.1 | 0.00 | 0.01 | 0.01 | 48 | 1013.4 |
| 20260905161228 | 92 | 238 | 2.6 | 6.1 | 0.00 | 0.01 | 0.01 | 48 | 1013.4 |
| 20260905161202 | 92 | 218 | 2.6 | 6.1 | 0.00 | 0.01 | 0.01 | 48 | 1013.4 |
| 20260905161051 | 92 | 195 | 2.6 | 6.1 | 0.00 | 0.01 | 0.01 | 48 | 1013.4 |
| 20260905160945 | 92 | 171 | 2.6 | 7.0 | 0.00 | 0.01 | 0.01 | 49 | 1013.4 |
| 20260905160927 | 92 | 218 | 2.6 | 7.0 | 0.00 | 0.01 | 0.01 | 49 | 1013.4 |
| 20260905160826 | 93 | 207 | 2.6 | 7.0 | 0.00 | 0.01 | 0.01 | 49 | 1013.3 |
| 20260905160709 | 93 | 173 | 2.6 | 7.0 | 0.00 | 0.01 | 0.01 | 49 | 1013.3 |
| 20260905160627 | 93 | 167 | 3.5 | 7.0 | 0.00 | 0.01 | 0.01 | 48 | 1013.3 |
| 20260905160548 | 93 | 214 | 3.5 | 7.0 | 0.00 | 0.01 | 0.01 | 48 | 1013.3 |
| 20260905160438 | 93 | 196 | 3.5 | 7.8 | 0.00 | 0.01 | 0.01 | 48 | 1013.3 |
| 20260905160333 | 93 | 192 | 4.3 | 7.8 | 0.00 | 0.01 | 0.01 | 47 | 1013.3 |
| 20260905160320 | 93 | 209 | 4.3 | 9.6 | 0.00 | 0.01 | 0.01 | 47 | 1013.3 |
| 20260905160218 | 93 | 185 | 4.3 | 9.6 | 0.00 | 0.01 | 0.01 | 46 | 1013.4 |
| 20260905160109 | 93 | 196 | 4.3 | 9.6 | 0.00 | 0.01 | 0.01 | 46 | 1013.4 |
| 20260905160014 | 94 | 208 | 4.3 | 9.6 | 0.00 | 0.01 | 0.01 | 46 | 1013.4 |
| 20260905155943 | 94 | 207 | 4.3 | 9.6 | 0.00 | 0.01 | 0.01 | 46 | 1013.4 |
| 20260905155833 | 94 | 216 | 3.5 | 9.6 | 0.00 | 0.01 | 0.01 | 48 | 1013.3 |
| 20260905155730 | 94 | 229 | 3.5 | 7.8 | 0.00 | 0.01 | 0.01 | 48 | 1013.4 |
| 20260905155722 | 94 | 227 | 3.5 | 7.8 | 0.00 | 0.01 | 0.01 | 48 | 1013.4 |
| 20260905155618 | 94 | 214 | 2.6 | 7.8 | 0.00 | 0.01 | 0.01 | 48 | 1013.4 |
| 20260905155513 | 94 | 226 | 2.6 | 7.0 | 0.00 | 0.01 | 0.01 | 48 | 1013.4 |
| 20260905155429 | 94 | 252 | 2.6 | 7.0 | 0.00 | 0.01 | 0.01 | 48 | 1013.3 |
| 20260905155351 | 94 | 238 | 2.6 | 7.0 | 0.00 | 0.01 | 0.01 | 48 | 1013.3 |
| 20260905155227 | 94 | 226 | 2.6 | 5.2 | 0.00 | 0.01 | 0.01 | 46 | 1013.4 |
| 20260905155036 | 94 | 156 | 3.5 | 6.1 | 0.00 | 0.01 | 0.01 | 46 | 1013.4 |
| 20260905154839 | 94 | 168 | 2.6 | 6.1 | 0.00 | 0.01 | 0.01 | 46 | 1013.4 |
| 20260905153822 | 94 | 242 | 3.5 | 7.0 | 0.00 | 0.01 | 0.01 | 42 | 1013.4 |
| 20260905153050 | 95 | 198 | 3.5 | 7.0 | 0.00 | 0.01 | 0.01 | 43 | 1013.5 |
| 20260905153042 | 95 | 179 | 3.5 | 7.0 | 0.00 | 0.01 | 0.01 | 43 | 1013.5 |
| 20260905152428 | 95 | 182 | 3.5 | 7.0 | 0.00 | 0.01 | 0.01 | 43 | 1013.6 |
| 20260905152005 | 95 | 226 | 4.3 | 9.6 | 0.00 | 0.01 | 0.01 | 42 | 1013.6 |
| 20260905151403 | 95 | 240 | 3.5 | 10.4 | 0.00 | 0.01 | 0.01 | 43 | 1013.7 |
| 20260905151211 | 95 | 211 | 3.5 | 10.4 | 0.00 | 0.01 | 0.01 | 44 | 1013.7 |
| 20260905150750 | 95 | 206 | 2.6 | 7.0 | 0.00 | 0.01 | 0.01 | 42 | 1013.7 |
| 20260905145736 | 95 | 163 | 3.5 | 8.7 | 0.00 | 0.01 | 0.01 | 44 | 1013.8 |
| 20260905145133 | 95 | 169 | 3.5 | 7.8 | 0.00 | 0.01 | 0.01 | 44 | 1013.8 |
| 20260905144352 | 95 | 174 | 3.5 | 7.8 | 0.00 | 0.01 | 0.01 | 41 | 1013.7 |
| 20260905143155 | 95 | 229 | 3.5 | 7.0 | 0.00 | 0.01 | 0.01 | 41 | 1013.9 |
| 20260905142819 | 95 | 217 | 3.5 | 7.0 | 0.00 | 0.01 | 0.01 | 42 | 1013.9 |
| 20260905142122 | 95 | 245 | 2.6 | 6.1 | 0.00 | 0.01 | 0.01 | 43 | 1014.0 |
| 20260905135553 | 95 | 164 | 3.5 | 7.8 | 0.00 | 0.01 | 0.01 | 45 | 1014.3 |
| 20260905133929 | 95 | 188 | 3.5 | 7.0 | 0.00 | 0.01 | 0.01 | 43 | 1014.5 |
| 20260905133029 | 95 | 163 | 3.5 | 7.8 | 0.00 | 0.01 | 0.01 | 42 | 1014.5 |
| 20260905132224 | 95 | 164 | 2.6 | 7.8 | 0.00 | 0.01 | 0.01 | 43 | 1014.5 |
| 20260905132122 | 95 | 261 | 2.6 | 7.8 | 0.00 | 0.01 | 0.01 | 43 | 1014.5 |
| 20260905131500 | 95 | 242 | 2.6 | 7.8 | 0.00 | 0.01 | 0.01 | 43 | 1014.5 |
| 20260905130609 | 95 | 200 | 2.6 | 7.8 | 0.00 | 0.01 | 0.01 | 43 | 1014.6 |
| 20260905130031 | 95 | 252 | 2.6 | 7.8 | 0.00 | 0.01 | 0.01 | 43 | 1014.6 |
| 20260905125745 | 95 | 240 | 2.6 | 7.8 | 0.00 | 0.01 | 0.01 | 43 | 1014.6 |
| 20260905124849 | 95 | 171 | 2.6 | 7.0 | 0.00 | 0.01 | 0.01 | 43 | 1014.6 |
| 20260905124122 | 94 | 147 | 3.5 | 7.8 | 0.00 | 0.01 | 0.01 | 43 | 1014.6 |
| 20260905124109 | 94 | 137 | 3.5 | 7.8 | 0.00 | 0.01 | 0.01 | 43 | 1014.6 |
| 20260905123954 | 94 | 216 | 4.3 | 9.6 | 0.00 | 0.01 | 0.01 | 44 | 1014.6 |
| 20260905123611 | 94 | 146 | 4.3 | 9.6 | 0.00 | 0.01 | 0.01 | 45 | 1014.6 |
| 20260905123529 | 94 | 217 | 4.3 | 9.6 | 0.00 | 0.01 | 0.01 | 45 | 1014.6 |
| 20260905123447 | 94 | 180 | 5.2 | 9.6 | 0.00 | 0.01 | 0.01 | 44 | 1014.6 |
| 20260905123312 | 94 | 153 | 5.2 | 9.6 | 0.00 | 0.01 | 0.01 | 44 | 1014.6 |
| 20260905123154 | 94 | 227 | 5.2 | 9.6 | 0.00 | 0.01 | 0.01 | 44 | 1014.6 |
| 20260905122745 | 94 | 239 | 4.3 | 9.6 | 0.00 | 0.01 | 0.01 | 44 | 1014.7 |
| 20260905122543 | 94 | 217 | 4.3 | 9.6 | 0.00 | 0.01 | 0.01 | 44 | 1014.7 |
| 20260905122429 | 94 | 180 | 4.3 | 9.6 | 0.00 | 0.01 | 0.01 | 44 | 1014.7 |
| 20260905122347 | 95 | 179 | 4.3 | 9.6 | 0.00 | 0.01 | 0.01 | 44 | 1014.6 |
| 20260905122140 | 95 | 193 | 4.3 | 8.7 | 0.00 | 0.01 | 0.01 | 44 | 1014.7 |
| 20260905121942 | 94 | 200 | 3.5 | 7.0 | 0.00 | 0.01 | 0.01 | 43 | 1014.6 |
| 20260905121929 | 94 | 259 | 3.5 | 7.0 | 0.00 | 0.01 | 0.01 | 43 | 1014.6 |
| 20260905121741 | 94 | 209 | 3.5 | 7.0 | 0.00 | 0.01 | 0.01 | 43 | 1014.6 |
| 20260905121719 | 95 | 153 | 4.3 | 9.6 | 0.00 | 0.01 | 0.01 | 43 | 1014.9 |
| 20260905121646 | 94 | 296 | 3.5 | 8.7 | 0.00 | 0.01 | 0.01 | 43 | 1014.9 |
| 20260905121630 | 94 | 202 | 2.6 | 7.0 | 0.00 | 0.01 | 0.01 | 43 | 1015.4 |
| 20260905121610 | 93 | 205 | 1.7 | 6.1 | 0.00 | 0.01 | 0.01 | 44 | 1015.4 |
| 20260905121559 | 93 | 337 | 2.6 | 7.0 | 0.00 | 0.01 | 0.01 | 44 | 1015.4 |
| 20260905121536 | 94 | 148 | 3.5 | 7.0 | 0.00 | 0.01 | 0.01 | 43 | 1014.6 |
| 20260905121513 | 93 | 268 | 3.5 | 7.8 | 0.00 | 0.01 | 0.01 | 44 | 1015.6 |
| 20260905121433 | 94 | 156 | 3.5 | 7.0 | 0.00 | 0.01 | 0.01 | 43 | 1014.6 |
| 20260905121341 | 94 | 170 | 3.5 | 7.0 | 0.00 | 0.01 | 0.01 | 42 | 1014.6 |
| 20260905121221 | 93 | 205 | 1.7 | 5.2 | 0.00 | 0.01 | 0.01 | 45 | 1015.5 |
| 20260905121135 | 94 | 230 | 3.5 | 9.6 | 0.00 | 0.01 | 0.01 | 42 | 1014.8 |
| 20260905121051 | 90 | 163 | 2.6 | 6.1 | 0.00 | 0.01 | 0.01 | 52 | 1016.4 |
| 20260905121030 | 90 | 215 | 2.6 | 6.1 | 0.00 | 0.01 | 0.01 | 53 | 1016.6 |
| 20260905120930 | 94 | 159 | 3.5 | 9.6 | 0.00 | 0.01 | 0.01 | 42 | 1014.8 |
| 20260905120924 | 89 | 205 | 1.7 | 5.2 | 0.00 | 0.01 | 0.01 | 55 | 1016.6 |
| 20260905120742 | 94 | 217 | 4.3 | 9.6 | 0.00 | 0.01 | 0.01 | 42 | 1014.8 |
| 20260905120615 | 94 | 230 | 4.3 | 9.6 | 0.00 | 0.01 | 0.01 | 43 | 1014.8 |
| 20260905120530 | 94 | 245 | 4.3 | 9.6 | 0.00 | 0.01 | 0.01 | 43 | 1014.9 |
| 20260905120448 | 94 | 218 | 4.3 | 9.6 | 0.00 | 0.01 | 0.01 | 43 | 1014.9 |
| 20260905120320 | 94 | 235 | 4.3 | 9.6 | 0.00 | 0.01 | 0.01 | 43 | 1014.9 |
| 20260905120200 | 95 | 153 | 4.3 | 9.6 | 0.00 | 0.01 | 0.01 | 43 | 1014.9 |
| 20260905120031 | 95 | 165 | 4.3 | 9.6 | 0.00 | 0.01 | 0.01 | 44 | 1014.8 |
| 20260905115917 | 95 | 191 | 4.3 | 9.6 | 0.00 | 0.01 | 0.01 | 44 | 1014.9 |
| 20260905115832 | 95 | 183 | 4.3 | 9.6 | 0.00 | 0.01 | 0.01 | 44 | 1014.9 |
| 20260905115759 | 95 | 212 | 4.3 | 9.6 | 0.00 | 0.01 | 0.01 | 44 | 1014.9 |
| 20260905115614 | 95 | 257 | 3.5 | 8.7 | 0.00 | 0.01 | 0.01 | 43 | 1014.9 |
| 20260905115243 | 94 | 261 | 3.5 | 8.7 | 0.00 | 0.01 | 0.01 | 43 | 1014.9 |
| 20260905115136 | 94 | 204 | 3.5 | 8.7 | 0.00 | 0.01 | 0.01 | 43 | 1015.1 |
| 20260905115018 | 94 | 220 | 2.6 | 8.7 | 0.00 | 0.01 | 0.01 | 44 | 1015.0 |
| 20260905114940 | 94 | 196 | 2.6 | 8.7 | 0.00 | 0.01 | 0.01 | 44 | 1015.0 |
| 20260905114847 | 94 | 257 | 2.6 | 7.0 | 0.00 | 0.01 | 0.01 | 43 | 1015.1 |
| 20260905114728 | 94 | 259 | 2.6 | 7.0 | 0.00 | 0.01 | 0.01 | 43 | 1015.1 |
| 20260905114617 | 94 | 187 | 1.7 | 5.2 | 0.00 | 0.01 | 0.01 | 42 | 1015.0 |
| 20260905114603 | 94 | 200 | 1.7 | 5.2 | 0.00 | 0.01 | 0.01 | 42 | 1015.0 |
| 20260905114139 | 94 | 275 | 2.6 | 5.2 | 0.00 | 0.01 | 0.01 | 42 | 1015.2 |
| 20260905114028 | 94 | 315 | 2.6 | 5.2 | 0.00 | 0.01 | 0.01 | 42 | 1015.2 |
| 20260905113953 | 94 | 299 | 2.6 | 6.1 | 0.00 | 0.01 | 0.01 | 42 | 1015.1 |
| 20260905113859 | 94 | 279 | 2.6 | 7.0 | 0.00 | 0.01 | 0.01 | 42 | 1015.1 |
| 20260905113743 | 94 | 222 | 3.5 | 7.8 | 0.00 | 0.01 | 0.01 | 42 | 1015.1 |
| 20260905113641 | 94 | 264 | 3.5 | 7.8 | 0.00 | 0.01 | 0.01 | 42 | 1015.1 |
| 20260905113623 | 94 | 277 | 3.5 | 7.8 | 0.00 | 0.01 | 0.01 | 42 | 1015.2 |
| 20260905113517 | 94 | 310 | 3.5 | 7.8 | 0.00 | 0.01 | 0.01 | 42 | 1015.2 |
| 20260905113410 | 94 | 225 | 3.5 | 7.8 | 0.00 | 0.01 | 0.01 | 42 | 1015.2 |
| 20260905113336 | 94 | 276 | 3.5 | 7.8 | 0.00 | 0.01 | 0.01 | 42 | 1015.2 |
| 20260905113241 | 94 | 215 | 3.5 | 7.8 | 0.00 | 0.01 | 0.01 | 42 | 1015.2 |
| 20260905113120 | 94 | 234 | 2.6 | 7.8 | 0.00 | 0.01 | 0.01 | 42 | 1015.2 |
| 20260905113018 | 94 | 202 | 2.6 | 7.8 | 0.00 | 0.01 | 0.01 | 42 | 1015.3 |
| 20260905113004 | 94 | 221 | 2.6 | 7.8 | 0.00 | 0.01 | 0.01 | 42 | 1015.3 |
| 20260905112842 | 94 | 173 | 1.7 | 6.1 | 0.00 | 0.01 | 0.01 | 42 | 1015.3 |
| 20260905112734 | 94 | 198 | 2.6 | 7.0 | 0.00 | 0.01 | 0.01 | 43 | 1015.4 |
| 20260905112408 | 94 | 165 | 2.6 | 7.0 | 0.00 | 0.01 | 0.01 | 43 | 1015.4 |
| 20260905112252 | 94 | 191 | 2.6 | 7.0 | 0.00 | 0.01 | 0.01 | 43 | 1015.4 |
| 20260905112142 | 93 | 309 | 2.6 | 7.0 | 0.00 | 0.01 | 0.01 | 43 | 1015.4 |
| 20260905112128 | 93 | 98 | 2.6 | 7.0 | 0.00 | 0.01 | 0.01 | 43 | 1015.4 |
| 20260905112003 | 93 | 146 | 2.6 | 7.0 | 0.00 | 0.01 | 0.01 | 43 | 1015.4 |
| 20260905111854 | 93 | 213 | 2.6 | 6.1 | 0.00 | 0.01 | 0.01 | 44 | 1015.4 |
| 20260905111507 | 93 | 194 | 1.7 | 6.1 | 0.00 | 0.01 | 0.01 | 44 | 1015.4 |
| 20260905111345 | 93 | 209 | 2.6 | 6.1 | 0.00 | 0.01 | 0.01 | 44 | 1015.4 |
| 20260905111019 | 93 | 349 | 2.6 | 7.0 | 0.00 | 0.01 | 0.01 | 44 | 1015.4 |
| 20260905110859 | 93 | 272 | 2.6 | 7.0 | 0.00 | 0.01 | 0.01 | 44 | 1015.5 |
| 20260905110743 | 93 | 156 | 2.6 | 7.0 | 0.00 | 0.01 | 0.01 | 44 | 1015.4 |
| 20260905110721 | 93 | 149 | 2.6 | 7.0 | 0.00 | 0.01 | 0.01 | 44 | 1015.4 |
| 20260905110621 | 93 | 138 | 2.6 | 7.0 | 0.00 | 0.01 | 0.01 | 44 | 1015.4 |
| 20260905110512 | 93 | 142 | 2.6 | 5.2 | 0.00 | 0.01 | 0.01 | 44 | 1015.4 |
| 20260905110416 | 93 | 92 | 2.6 | 7.8 | 0.00 | 0.01 | 0.01 | 44 | 1015.4 |
| 20260905110353 | 93 | 111 | 2.6 | 7.8 | 0.00 | 0.01 | 0.01 | 44 | 1015.4 |
| 20260905110238 | 93 | 15 | 2.6 | 7.8 | 0.00 | 0.01 | 0.01 | 44 | 1015.5 |
| 20260905110122 | 93 | 17 | 3.5 | 7.8 | 0.00 | 0.01 | 0.01 | 44 | 1015.6 |
| 20260905105754 | 93 | 210 | 3.5 | 7.8 | 0.00 | 0.01 | 0.01 | 44 | 1015.5 |
| 20260905105629 | 93 | 233 | 2.6 | 7.8 | 0.00 | 0.01 | 0.01 | 45 | 1015.6 |
| 20260905105536 | 93 | 165 | 2.6 | 6.1 | 0.00 | 0.01 | 0.01 | 44 | 1015.6 |
| 20260905105512 | 93 | 243 | 2.6 | 6.1 | 0.00 | 0.01 | 0.01 | 44 | 1015.6 |
| 20260905105342 | 93 | 194 | 2.6 | 6.1 | 0.00 | 0.01 | 0.01 | 45 | 1015.6 |
| 20260905105222 | 93 | 149 | 1.7 | 5.2 | 0.00 | 0.01 | 0.01 | 45 | 1015.5 |
| 20260905104850 | 93 | 180 | 1.7 | 5.2 | 0.00 | 0.01 | 0.01 | 45 | 1015.6 |
| 20260905104737 | 92 | 161 | 1.7 | 5.2 | 0.00 | 0.01 | 0.01 | 46 | 1015.6 |
| 20260905104646 | 92 | 331 | 1.7 | 5.2 | 0.00 | 0.01 | 0.01 | 46 | 1015.6 |
| 20260905104604 | 92 | 333 | 1.7 | 5.2 | 0.00 | 0.01 | 0.01 | 46 | 1015.6 |
| 20260905104452 | 92 | 131 | 1.7 | 4.3 | 0.00 | 0.01 | 0.01 | 46 | 1015.7 |
| 20260905104329 | 92 | 180 | 2.6 | 9.6 | 0.00 | 0.01 | 0.01 | 46 | 1015.7 |
| 20260905104033 | 92 | 279 | 3.5 | 9.6 | 0.00 | 0.01 | 0.01 | 46 | 1015.7 |
| 20260905103924 | 92 | 218 | 3.5 | 9.6 | 0.00 | 0.01 | 0.01 | 46 | 1015.6 |
| 20260905103841 | 92 | 224 | 3.5 | 9.6 | 0.00 | 0.01 | 0.01 | 46 | 1015.6 |
| 20260905103803 | 92 | 194 | 3.5 | 9.6 | 0.00 | 0.01 | 0.01 | 46 | 1015.8 |
| 20260905103655 | 92 | 220 | 3.5 | 9.6 | 0.00 | 0.01 | 0.01 | 47 | 1015.7 |
| 20260905103536 | 92 | 194 | 2.6 | 7.8 | 0.00 | 0.01 | 0.01 | 47 | 1015.7 |
| 20260905103419 | 92 | 198 | 2.6 | 7.8 | 0.00 | 0.01 | 0.01 | 47 | 1015.8 |
| 20260905103300 | 92 | 250 | 2.6 | 6.1 | 0.00 | 0.01 | 0.01 | 48 | 1015.9 |
| 20260905103223 | 92 | 185 | 2.6 | 7.8 | 0.00 | 0.01 | 0.01 | 48 | 1015.9 |
| 20260905103148 | 92 | 161 | 2.6 | 7.8 | 0.00 | 0.01 | 0.01 | 48 | 1015.9 |
| 20260905103032 | 92 | 126 | 2.6 | 7.8 | 0.00 | 0.01 | 0.01 | 48 | 1015.9 |
| 20260905102906 | 92 | 197 | 2.6 | 7.8 | 0.00 | 0.01 | 0.01 | 48 | 1016.0 |
| 20260905102800 | 92 | 171 | 3.5 | 7.8 | 0.00 | 0.01 | 0.01 | 48 | 1016.0 |
| 20260905102640 | 92 | 193 | 3.5 | 7.8 | 0.00 | 0.01 | 0.01 | 48 | 1016.1 |
| 20260905102600 | 92 | 210 | 2.6 | 7.0 | 0.00 | 0.01 | 0.01 | 48 | 1016.1 |
| 20260905102520 | 92 | 200 | 2.6 | 7.0 | 0.00 | 0.01 | 0.01 | 47 | 1016.1 |
| 20260905102405 | 92 | 206 | 2.6 | 7.0 | 0.00 | 0.01 | 0.01 | 47 | 1016.1 |
| 20260905102256 | 92 | 223 | 2.6 | 7.0 | 0.00 | 0.01 | 0.01 | 47 | 1016.1 |
| 20260905102248 | 92 | 256 | 2.6 | 7.0 | 0.00 | 0.01 | 0.01 | 47 | 1016.1 |
| 20260905102114 | 91 | 196 | 1.7 | 7.0 | 0.00 | 0.01 | 0.01 | 48 | 1016.1 |
| 20260905101955 | 91 | 198 | 1.7 | 5.2 | 0.00 | 0.01 | 0.01 | 48 | 1016.1 |
| 20260905101921 | 91 | 179 | 1.7 | 5.2 | 0.00 | 0.01 | 0.01 | 48 | 1016.1 |
| 20260905101357 | 91 | 137 | 1.7 | 5.2 | 0.00 | 0.01 | 0.01 | 48 | 1016.1 |
| 20260905100500 | 91 | 211 | 1.7 | 5.2 | 0.00 | 0.01 | 0.01 | 49 | 1016.1 |
| 20260905095832 | 91 | 252 | 2.6 | 5.2 | 0.00 | 0.01 | 0.01 | 49 | 1016.2 |
| 20260905095645 | 91 | 212 | 2.6 | 5.2 | 0.00 | 0.01 | 0.01 | 49 | 1016.2 |
| 20260905094702 | 91 | 175 | 2.6 | 6.1 | 0.00 | 0.01 | 0.01 | 49 | 1016.1 |
| 20260905094116 | 91 | 232 | 2.6 | 7.8 | 0.00 | 0.01 | 0.01 | 49 | 1016.2 |
| 20260905094051 | 91 | 286 | 2.6 | 7.8 | 0.00 | 0.01 | 0.01 | 49 | 1016.2 |
| 20260905093941 | 91 | 340 | 2.6 | 7.8 | 0.00 | 0.01 | 0.01 | 49 | 1016.3 |
| 20260905093822 | 91 | 213 | 2.6 | 7.8 | 0.00 | 0.01 | 0.01 | 50 | 1016.2 |
| 20260905093724 | 91 | 236 | 3.5 | 7.8 | 0.00 | 0.01 | 0.01 | 50 | 1016.2 |
| 20260905093702 | 90 | 257 | 3.5 | 7.8 | 0.00 | 0.01 | 0.01 | 50 | 1016.2 |
| 20260905093537 | 90 | 207 | 2.6 | 7.8 | 0.00 | 0.01 | 0.01 | 51 | 1016.3 |
| 20260905093359 | 90 | 223 | 2.6 | 6.1 | 0.00 | 0.01 | 0.01 | 51 | 1016.4 |
| 20260905093309 | 90 | 223 | 2.6 | 6.1 | 0.00 | 0.01 | 0.01 | 51 | 1016.4 |
| 20260905093156 | 90 | 223 | 2.6 | 6.1 | 0.00 | 0.01 | 0.01 | 51 | 1016.4 |
| 20260905093114 | 90 | 214 | 2.6 | 6.1 | 0.00 | 0.01 | 0.01 | 51 | 1016.4 |
| 20260905093029 | 90 | 220 | 2.6 | 6.1 | 0.00 | 0.01 | 0.01 | 52 | 1016.4 |
| 20260905092850 | 90 | 213 | 2.6 | 6.1 | 0.00 | 0.01 | 0.01 | 52 | 1016.4 |
| 20260905092715 | 90 | 148 | 2.6 | 6.1 | 0.00 | 0.01 | 0.01 | 52 | 1016.4 |
| 20260905092331 | 90 | 227 | 2.6 | 6.1 | 0.00 | 0.01 | 0.01 | 52 | 1016.6 |
| 20260905092154 | 90 | 212 | 2.6 | 6.1 | 0.00 | 0.01 | 0.01 | 53 | 1016.4 |
| 20260905091820 | 90 | 203 | 2.6 | 6.1 | 0.00 | 0.01 | 0.01 | 53 | 1016.6 |
| 20260905091649 | 90 | 207 | 2.6 | 5.2 | 0.00 | 0.01 | 0.01 | 54 | 1016.4 |
| 20260905091517 | 89 | 209 | 1.7 | 5.2 | 0.00 | 0.01 | 0.01 | 55 | 1016.6 |
| 20260905091500 | 89 | 209 | 1.7 | 5.2 | 0.00 | 0.01 | 0.01 | 55 | 1016.6 |
| 20260905091342 | 89 | 235 | 1.7 | 5.2 | 0.00 | 0.01 | 0.01 | 54 | 1016.6 |
| 20260905091144 | 89 | 310 | 1.7 | 5.2 | 0.00 | 0.01 | 0.01 | 54 | 1016.6 |
| 20260905090811 | 89 | 213 | 1.7 | 5.2 | 0.00 | 0.01 | 0.01 | 55 | 1016.6 |
| 20260905090643 | 89 | 210 | 1.7 | 4.3 | 0.00 | 0.01 | 0.01 | 55 | 1016.7 |
| 20260905090521 | 88 | 174 | 1.7 | 4.3 | 0.00 | 0.01 | 0.01 | 56 | 1016.6 |
| 20260905090459 | 88 | 234 | 1.7 | 4.3 | 0.00 | 0.01 | 0.01 | 56 | 1016.6 |
| 20260905090358 | 88 | 210 | 1.7 | 4.3 | 0.00 | 0.01 | 0.01 | 56 | 1016.7 |
| 20260905090241 | 88 | 230 | 1.7 | 4.3 | 0.00 | 0.01 | 0.01 | 56 | 1016.6 |
| 20260905090151 | 88 | 263 | 2.6 | 4.3 | 0.00 | 0.01 | 0.01 | 56 | 1016.6 |
| 20260905090122 | 88 | 263 | 2.6 | 4.3 | 0.00 | 0.01 | 0.01 | 56 | 1016.7 |
| 20260905085956 | 88 | 236 | 1.7 | 4.3 | 0.00 | 0.01 | 0.01 | 57 | 1016.6 |
| 20260905085829 | 88 | 236 | 1.7 | 6.1 | 0.00 | 0.01 | 0.01 | 57 | 1016.6 |
| 20260905085812 | 88 | 176 | 1.7 | 6.1 | 0.00 | 0.01 | 0.01 | 57 | 1016.6 |
| 20260905085652 | 87 | 184 | 1.7 | 6.1 | 0.00 | 0.01 | 0.01 | 58 | 1016.6 |
| 20260905085526 | 87 | 192 | 1.7 | 6.1 | 0.00 | 0.01 | 0.01 | 58 | 1016.4 |
| 20260905085136 | 87 | 195 | 1.7 | 6.1 | 0.00 | 0.01 | 0.01 | 58 | 1016.8 |
| 20260905084754 | 87 | 200 | 1.7 | 6.1 | 0.00 | 0.01 | 0.01 | 57 | 1016.8 |
| 20260905084056 | 87 | 235 | 1.7 | 6.1 | 0.00 | 0.01 | 0.01 | 57 | 1016.7 |
| 20260905083846 | 87 | 199 | 1.7 | 6.1 | 0.00 | 0.01 | 0.01 | 58 | 1016.7 |
| 20260905083659 | 87 | 292 | 1.7 | 6.1 | 0.00 | 0.01 | 0.01 | 58 | 1016.7 |
| 20260905083541 | 86 | 219 | 2.6 | 6.1 | 0.00 | 0.01 | 0.01 | 60 | 1016.8 |
| 20260905083453 | 86 | 52 | 1.7 | 6.1 | 0.00 | 0.01 | 0.01 | 58 | 1016.7 |
| 20260905083417 | 86 | 294 | 1.7 | 6.1 | 0.00 | 0.01 | 0.01 | 58 | 1016.7 |
| 20260905083331 | 86 | 216 | 1.7 | 6.1 | 0.00 | 0.01 | 0.01 | 59 | 1016.8 |
| 20260905083211 | 86 | 241 | 1.7 | 6.1 | 0.00 | 0.01 | 0.01 | 60 | 1016.8 |
| 20260905083057 | 86 | 219 | 2.6 | 6.1 | 0.00 | 0.01 | 0.01 | 60 | 1016.8 |
| 20260905082649 | 86 | 236 | 2.6 | 6.1 | 0.00 | 0.01 | 0.01 | 60 | 1016.8 |
| 20260905082340 | 86 | 202 | 2.6 | 6.1 | 0.00 | 0.01 | 0.01 | 60 | 1016.8 |
| 20260905082246 | 86 | 195 | 2.6 | 6.1 | 0.00 | 0.01 | 0.01 | 60 | 1016.8 |
| 20260905082046 | 86 | 227 | 2.6 | 5.2 | 0.00 | 0.01 | 0.01 | 60 | 1016.8 |
| 20260905081847 | 85 | 232 | 1.7 | 5.2 | 0.00 | 0.01 | 0.01 | 61 | 1016.7 |
| 20260905081840 | 85 | 231 | 1.7 | 5.2 | 0.00 | 0.01 | 0.01 | 61 | 1016.7 |
| 20260905081655 | 85 | 187 | 2.6 | 5.2 | 0.00 | 0.01 | 0.01 | 61 | 1016.7 |
| 20260905081514 | 85 | 180 | 2.6 | 5.2 | 0.00 | 0.01 | 0.01 | 62 | 1016.7 |
| 20260905081357 | 85 | 215 | 2.6 | 5.2 | 0.00 | 0.01 | 0.01 | 62 | 1016.7 |
| 20260905081308 | 85 | 200 | 2.6 | 5.2 | 0.00 | 0.01 | 0.01 | 62 | 1016.7 |
| 20260905081051 | 85 | 218 | 1.7 | 5.2 | 0.00 | 0.01 | 0.01 | 62 | 1016.7 |
| 20260905080844 | 85 | 261 | 2.6 | 5.2 | 0.00 | 0.01 | 0.01 | 62 | 1016.7 |
| 20260905080829 | 85 | 262 | 2.6 | 5.2 | 0.00 | 0.01 | 0.01 | 62 | 1016.7 |
| 20260905080639 | 85 | 221 | 1.7 | 5.2 | 0.00 | 0.01 | 0.01 | 63 | 1016.8 |
| 20260905080446 | 85 | 223 | 1.7 | 4.3 | 0.00 | 0.01 | 0.01 | 63 | 1016.8 |
| 20260905080341 | 85 | 188 | 1.7 | 4.3 | 0.00 | 0.01 | 0.01 | 63 | 1016.8 |
| 20260905080225 | 84 | 163 | 1.7 | 6.1 | 0.00 | 0.01 | 0.01 | 63 | 1016.8 |
| 20260905080013 | 84 | 192 | 1.7 | 6.1 | 0.00 | 0.01 | 0.01 | 64 | 1016.9 |
| 20260905075850 | 84 | 218 | 1.7 | 6.1 | 0.00 | 0.01 | 0.01 | 64 | 1016.8 |
| 20260905075819 | 84 | 147 | 1.7 | 6.1 | 0.00 | 0.01 | 0.01 | 64 | 1016.8 |
| 20260905075621 | 84 | 160 | 1.7 | 6.1 | 0.00 | 0.01 | 0.01 | 64 | 1016.8 |
| 20260905075452 | 84 | 232 | 1.7 | 6.1 | 0.00 | 0.01 | 0.01 | 64 | 1016.9 |
| 20260905075405 | 84 | 232 | 2.6 | 6.1 | 0.00 | 0.01 | 0.01 | 64 | 1016.9 |
| 20260905075307 | 84 | 248 | 2.6 | 5.2 | 0.00 | 0.01 | 0.01 | 64 | 1016.8 |
| 20260905075107 | 83 | 225 | 1.7 | 5.2 | 0.00 | 0.01 | 0.01 | 65 | 1016.8 |
| 20260905074949 | 83 | 203 | 1.7 | 5.2 | 0.00 | 0.01 | 0.01 | 65 | 1016.8 |
| 20260905074929 | 83 | 296 | 1.7 | 5.2 | 0.00 | 0.01 | 0.01 | 65 | 1016.8 |
| 20260905074813 | 83 | 167 | 2.6 | 5.2 | 0.00 | 0.01 | 0.01 | 65 | 1016.9 |
| 20260905074649 | 83 | 188 | 2.6 | 5.2 | 0.00 | 0.01 | 0.01 | 65 | 1016.8 |
| 20260905074621 | 83 | 207 | 2.6 | 5.2 | 0.00 | 0.01 | 0.01 | 65 | 1016.8 |
| 20260905074505 | 83 | 239 | 2.6 | 5.2 | 0.00 | 0.01 | 0.01 | 65 | 1016.8 |
| 20260905074028 | 83 | 234 | 1.7 | 5.2 | 0.00 | 0.01 | 0.01 | 65 | 1016.8 |
| 20260905073847 | 83 | 210 | 1.7 | 5.2 | 0.00 | 0.01 | 0.01 | 65 | 1016.8 |
| 20260905073819 | 83 | 199 | 1.7 | 5.2 | 0.00 | 0.01 | 0.01 | 65 | 1016.8 |
| 20260905073633 | 83 | 207 | 1.7 | 5.2 | 0.00 | 0.01 | 0.01 | 65 | 1016.7 |
| 20260905073412 | 82 | 220 | 1.7 | 4.3 | 0.00 | 0.01 | 0.01 | 66 | 1016.7 |
| 20260905073331 | 82 | 220 | 1.7 | 4.3 | 0.00 | 0.01 | 0.01 | 66 | 1016.7 |
| 20260905073213 | 82 | 227 | 1.7 | 5.2 | 0.00 | 0.01 | 0.01 | 65 | 1016.7 |
| 20260905073010 | 82 | 175 | 2.6 | 5.2 | 0.00 | 0.01 | 0.01 | 65 | 1016.7 |
| 20260905072832 | 82 | 219 | 2.6 | 5.2 | 0.00 | 0.01 | 0.01 | 65 | 1016.7 |
| 20260905072804 | 82 | 239 | 2.6 | 5.2 | 0.00 | 0.01 | 0.01 | 65 | 1016.7 |
| 20260905072609 | 82 | 207 | 2.6 | 5.2 | 0.00 | 0.01 | 0.01 | 65 | 1016.7 |
| 20260905072419 | 82 | 227 | 2.6 | 5.2 | 0.00 | 0.01 | 0.01 | 65 | 1016.8 |
| 20260905072354 | 82 | 223 | 2.6 | 5.2 | 0.00 | 0.01 | 0.01 | 65 | 1016.8 |
| 20260905072240 | 82 | 222 | 1.7 | 5.2 | 0.00 | 0.01 | 0.01 | 66 | 1016.8 |
| 20260905072109 | 82 | 215 | 1.7 | 5.2 | 0.00 | 0.01 | 0.01 | 66 | 1016.8 |
| 20260905072009 | 82 | 284 | 1.7 | 5.2 | 0.00 | 0.01 | 0.01 | 66 | 1016.7 |
| 20260905071945 | 82 | 274 | 1.7 | 5.2 | 0.00 | 0.01 | 0.01 | 66 | 1016.7 |
| 20260905071824 | 82 | 271 | 1.7 | 4.3 | 0.00 | 0.01 | 0.01 | 66 | 1016.8 |
| 20260905071655 | 82 | 194 | 1.7 | 4.3 | 0.00 | 0.01 | 0.01 | 66 | 1016.7 |
| 20260905071631 | 82 | 225 | 1.7 | 4.3 | 0.00 | 0.01 | 0.01 | 66 | 1016.7 |
| 20260905071537 | 82 | 225 | 2.6 | 6.1 | 0.00 | 0.01 | 0.01 | 66 | 1016.8 |
| 20260905071408 | 82 | 229 | 2.6 | 6.1 | 0.00 | 0.01 | 0.01 | 66 | 1016.8 |
| 20260905071300 | 82 | 281 | 2.6 | 6.1 | 0.00 | 0.01 | 0.01 | 66 | 1016.7 |
| 20260905071240 | 82 | 304 | 2.6 | 6.1 | 0.00 | 0.01 | 0.01 | 66 | 1016.7 |
| 20260905071125 | 81 | 283 | 1.7 | 6.1 | 0.00 | 0.01 | 0.01 | 66 | 1016.7 |
| 20260905071007 | 81 | 225 | 1.7 | 6.1 | 0.00 | 0.01 | 0.01 | 66 | 1016.7 |
| 20260905070944 | 81 | 192 | 1.7 | 6.1 | 0.00 | 0.01 | 0.01 | 66 | 1016.7 |
| 20260905070848 | 81 | 240 | 1.7 | 4.3 | 0.00 | 0.01 | 0.01 | 66 | 1016.7 |
| 20260905070728 | 81 | 267 | 0.9 | 4.3 | 0.00 | 0.01 | 0.01 | 66 | 1016.7 |
| 20260905070631 | 81 | 246 | 0.9 | 3.5 | 0.00 | 0.01 | 0.01 | 67 | 1016.7 |
| 20260905070606 | 81 | 246 | 0.9 | 3.5 | 0.00 | 0.01 | 0.01 | 67 | 1016.7 |
| 20260905070452 | 81 | 246 | 1.7 | 3.5 | 0.00 | 0.01 | 0.01 | 67 | 1016.7 |
| 20260905070340 | 80 | 291 | 1.7 | 3.5 | 0.00 | 0.01 | 0.01 | 67 | 1016.7 |
| 20260905070321 | 80 | 262 | 1.7 | 3.5 | 0.00 | 0.01 | 0.01 | 67 | 1016.7 |
| 20260905070206 | 80 | 261 | 1.7 | 3.5 | 0.00 | 0.01 | 0.01 | 67 | 1016.7 |
| 20260905070044 | 80 | 263 | 1.7 | 3.5 | 0.00 | 0.01 | 0.01 | 67 | 1016.7 |
| 20260905065944 | 80 | 300 | 2.6 | 4.3 | 0.00 | 0.01 | 0.01 | 67 | 1016.7 |
| 20260905065913 | 80 | 289 | 2.6 | 4.3 | 0.00 | 0.01 | 0.01 | 67 | 1016.7 |
| 20260905065754 | 80 | 293 | 2.6 | 4.3 | 0.00 | 0.01 | 0.01 | 68 | 1016.7 |